FW6030 Weather Reports


time (UTC)temp
C
wind
direction
speed
KPH
gust
KPH
rain 1hr
cm
rain 24hr
cm
rain mn
cm
humidity
%
barometer
mb
20260507190031 17 360 4.8 14.5 0.00 0.00 0.00 73 1018.5
20260507185935 17 70 6.4 19.3 0.00 0.00 0.00 72 1018.4
20260507185834 17 360 6.4 19.3 0.00 0.00 0.00 72 1018.3
20260507185736 17 360 8.0 19.3 0.00 0.00 0.00 72 1018.1
20260507185656 17 360 8.0 19.3 0.00 0.00 0.00 72 1018.0
20260507185535 17 360 9.7 19.3 0.00 0.00 0.00 72 1018.0
20260507185416 17 82 11.3 19.3 0.00 0.00 0.00 72 1018.0
20260507185319 17 360 11.3 19.3 0.00 0.00 0.00 72 1018.1
20260507185220 17 360 11.3 19.3 0.00 0.00 0.00 71 1018.0
20260507185121 17 360 11.3 19.3 0.00 0.00 0.00 71 1018.0
20260507185021 17 66 11.3 19.3 0.00 0.00 0.00 71 1018.0
20260507184943 17 360 11.3 17.7 0.00 0.00 0.00 71 1018.0
20260507184816 17 360 9.7 17.7 0.00 0.00 0.00 71 1018.2
20260507184717 17 360 11.3 17.7 0.00 0.00 0.00 71 1018.3
20260507184622 17 360 11.3 17.7 0.00 0.00 0.00 71 1018.3
20260507184521 17 360 11.3 17.7 0.00 0.00 0.00 71 1018.4
20260507184443 17 360 11.3 17.7 0.00 0.00 0.00 71 1018.4
20260507184316 17 360 9.7 17.7 0.00 0.00 0.00 72 1018.5
20260507184216 17 360 9.7 17.7 0.00 0.00 0.00 72 1018.5
20260507184118 17 360 9.7 17.7 0.00 0.00 0.00 72 1018.6
20260507184023 17 360 9.7 17.7 0.00 0.00 0.00 72 1018.7
20260507183921 17 360 9.7 17.7 0.00 0.00 0.00 72 1018.7
20260507183822 17 70 9.7 17.7 0.00 0.00 0.00 72 1018.6
20260507183723 17 360 11.3 17.7 0.00 0.00 0.00 72 1018.6
20260507183643 17 360 11.3 19.3 0.00 0.00 0.00 72 1018.5
20260507183523 17 360 11.3 19.3 0.00 0.00 0.00 72 1018.6
20260507183444 17 360 11.3 19.3 0.00 0.00 0.00 72 1018.6
20260507183343 17 360 11.3 19.3 0.00 0.00 0.00 72 1018.6
20260507183223 17 360 11.3 19.3 0.00 0.00 0.00 71 1018.6
20260507183128 17 360 11.3 19.3 0.00 0.00 0.00 72 1018.6
20260507183028 17 360 9.7 19.3 0.00 0.00 0.00 72 1018.6
20260507182928 17 360 9.7 19.3 0.00 0.00 0.00 72 1018.6
20260507182849 17 91 9.7 19.3 0.00 0.00 0.00 72 1018.7
20260507182726 17 360 9.7 19.3 0.00 0.00 0.00 72 1018.6
20260507182648 17 360 8.0 22.5 0.00 0.00 0.00 72 1018.6
20260507182547 17 360 9.7 22.5 0.00 0.00 0.00 72 1018.6
20260507182447 17 360 9.7 22.5 0.00 0.00 0.00 72 1018.6
20260507182326 17 360 9.7 22.5 0.00 0.00 0.00 72 1018.8
20260507182230 17 360 9.7 22.5 0.00 0.00 0.00 72 1018.8
20260507182150 17 360 9.7 22.5 0.00 0.00 0.00 72 1018.8
20260507182030 17 360 11.3 22.5 0.00 0.00 0.00 72 1018.8
20260507181930 17 360 11.3 22.5 0.00 0.00 0.00 73 1018.8
20260507181831 17 360 9.7 22.5 0.00 0.00 0.00 73 1018.8
20260507181732 17 360 9.7 19.3 0.00 0.00 0.00 73 1018.7
20260507181652 17 360 8.0 16.1 0.00 0.00 0.00 72 1018.7
20260507181517 17 360 9.7 17.7 0.00 0.00 0.00 73 1018.6
20260507181418 17 360 8.0 17.7 0.00 0.00 0.00 73 1018.6
20260507181318 17 360 8.0 24.1 0.00 0.00 0.00 73 1018.6
20260507181218 17 360 8.0 24.1 0.00 0.00 0.00 73 1018.7
20260507181119 17 360 8.0 24.1 0.00 0.00 0.00 73 1018.7
20260507181019 17 360 9.7 24.1 0.00 0.00 0.00 72 1018.8
20260507180920 17 360 11.3 24.1 0.00 0.00 0.00 73 1018.8
20260507180824 17 360 11.3 24.1 0.00 0.00 0.00 73 1018.8
20260507180724 17 12 12.9 24.1 0.00 0.00 0.00 73 1018.7
20260507180625 17 360 12.9 24.1 0.00 0.00 0.00 73 1018.6
20260507180525 17 360 12.9 24.1 0.00 0.00 0.00 73 1018.5
20260507180426 17 360 12.9 22.5 0.00 0.00 0.00 74 1018.4
20260507180345 17 360 11.3 22.5 0.00 0.00 0.00 74 1018.4
20260507180224 17 360 9.7 19.3 0.00 0.00 0.00 73 1018.4
20260507180129 17 360 9.7 19.3 0.00 0.00 0.00 74 1018.4
20260507180029 17 360 8.0 19.3 0.00 0.00 0.00 74 1018.4
20260507175929 17 360 8.0 19.3 0.00 0.00 0.00 75 1018.5
20260507175830 17 360 8.0 19.3 0.00 0.00 0.00 75 1018.4
20260507175730 16 360 9.7 20.9 0.00 0.00 0.00 75 1018.4
20260507175630 16 360 9.7 20.9 0.00 0.00 0.00 74 1018.5
20260507175534 16 360 11.3 20.9 0.00 0.00 0.00 75 1018.5
20260507175435 16 360 11.3 20.9 0.00 0.00 0.00 75 1018.4
20260507175334 16 360 9.7 20.9 0.00 0.00 0.00 76 1018.6
20260507175236 16 360 9.7 20.9 0.00 0.00 0.00 76 1018.6
20260507175136 16 360 9.7 20.9 0.00 0.00 0.00 76 1018.6
20260507175056 16 360 9.7 20.9 0.00 0.00 0.00 75 1018.5
20260507174935 16 360 11.3 20.9 0.00 0.00 0.00 75 1018.4
20260507174819 16 360 11.3 19.3 0.00 0.00 0.00 76 1018.2
20260507174740 16 360 11.3 19.3 0.00 0.00 0.00 76 1018.3
20260507174620 16 360 11.3 19.3 0.00 0.00 0.00 76 1018.3
20260507174520 16 360 9.7 19.3 0.00 0.00 0.00 76 1018.3
20260507174420 16 360 9.7 19.3 0.00 0.00 0.00 76 1018.3
20260507174322 16 360 9.7 19.3 0.00 0.00 0.00 76 1018.3
20260507174243 16 360 9.7 19.3 0.00 0.00 0.00 77 1018.4
20260507174127 16 360 9.7 19.3 0.00 0.00 0.00 76 1018.4
20260507174028 16 360 12.9 19.3 0.00 0.00 0.00 76 1018.4
20260507173929 16 360 12.9 20.9 0.00 0.00 0.00 76 1018.3
20260507173830 16 360 11.3 20.9 0.00 0.00 0.00 76 1018.3
20260507173731 16 360 11.3 20.9 0.00 0.00 0.00 76 1018.1
20260507173631 16 360 11.3 20.9 0.00 0.00 0.00 76 1018.1
20260507173531 16 360 11.3 20.9 0.00 0.00 0.00 76 1018.2
20260507173416 16 360 12.9 20.9 0.00 0.00 0.00 77 1018.4
20260507173336 16 360 12.9 20.9 0.00 0.00 0.00 77 1018.4
20260507173236 16 360 12.9 20.9 0.00 0.00 0.00 77 1018.5
20260507173135 16 360 11.3 20.9 0.00 0.00 0.00 77 1018.5
20260507173016 16 360 9.7 17.7 0.00 0.00 0.00 76 1018.6
20260507172916 16 360 8.0 14.5 0.00 0.00 0.00 77 1018.6
20260507172822 16 360 8.0 14.5 0.00 0.00 0.00 77 1018.6
20260507172721 16 360 6.4 14.5 0.00 0.00 0.00 77 1018.7
20260507172621 16 360 6.4 14.5 0.00 0.00 0.00 77 1018.7
20260507172522 16 360 8.0 16.1 0.00 0.00 0.00 78 1018.6
20260507172422 16 360 6.4 16.1 0.00 0.00 0.00 78 1018.6
20260507172323 16 360 8.0 16.1 0.00 0.00 0.00 78 1018.7
20260507172224 16 360 8.0 16.1 0.00 0.00 0.00 78 1018.7
20260507172129 16 360 8.0 16.1 0.00 0.00 0.00 78 1018.7
20260507172049 16 360 8.0 16.1 0.00 0.00 0.00 78 1018.7
20260507171929 16 360 8.0 16.1 0.00 0.00 0.00 78 1018.7
20260507171827 16 78 6.4 16.1 0.00 0.00 0.00 78 1018.7
20260507171727 16 360 6.4 16.1 0.00 0.00 0.00 78 1018.6
20260507171648 16 360 6.4 16.1 0.00 0.00 0.00 78 1018.6
20260507171527 15 360 8.0 16.1 0.00 0.00 0.00 78 1018.7
20260507171428 15 79 9.7 16.1 0.00 0.00 0.00 78 1018.7
20260507171330 15 360 9.7 16.1 0.00 0.00 0.00 78 1018.7
20260507171231 15 360 9.7 16.1 0.00 0.00 0.00 77 1018.8
20260507171131 15 360 9.7 16.1 0.00 0.00 0.00 77 1018.7
20260507171031 15 360 8.0 16.1 0.00 0.00 0.00 79 1018.8
20260507170932 16 360 8.0 17.7 0.00 0.00 0.00 79 1018.8
20260507170832 15 37 6.4 17.7 0.00 0.00 0.00 78 1018.9
20260507170717 15 360 6.4 17.7 0.00 0.00 0.00 78 1018.9
20260507170618 15 360 6.4 17.7 0.00 0.00 0.00 79 1018.9
20260507170538 15 360 8.0 17.7 0.00 0.00 0.00 79 1018.8
20260507170418 15 360 9.7 17.7 0.00 0.00 0.00 79 1018.7
20260507170317 15 360 9.7 17.7 0.00 0.00 0.00 79 1018.6
20260507170219 15 360 9.7 17.7 0.00 0.00 0.00 79 1018.7
20260507170139 15 360 9.7 17.7 0.00 0.00 0.00 79 1018.7
20260507170019 16 360 8.0 17.7 0.00 0.00 0.00 79 1018.8
20260507165943 16 360 9.7 17.7 0.00 0.00 0.00 79 1018.8
20260507165844 16 360 11.3 17.7 0.00 0.00 0.00 79 1018.8
20260507165716 16 360 9.7 17.7 0.00 0.00 0.00 79 1018.7
20260507165637 16 360 9.7 17.7 0.00 0.00 0.00 78 1018.7
20260507165516 16 360 8.0 17.7 0.00 0.00 0.00 79 1018.8
20260507165417 16 360 8.0 17.7 0.00 0.00 0.00 79 1019.1
20260507165318 16 360 9.7 17.7 0.00 0.00 0.00 79 1019.1
20260507165238 16 360 9.7 17.7 0.00 0.00 0.00 79 1019.1
20260507165203 16 44 9.7 17.7 0.00 0.00 0.00 79 1019.1
20260507165104 16 360 8.0 17.7 0.00 0.00 0.00 80 1019.2
20260507164916 15 360 8.0 17.7 0.00 0.00 0.00 80 1019.1
20260507164816 15 360 8.0 19.3 0.00 0.00 0.00 80 1019.1
20260507164717 15 360 9.7 20.9 0.00 0.00 0.00 80 1019.2
20260507164617 15 20 9.7 20.9 0.00 0.00 0.00 80 1019.2
20260507164518 15 360 9.7 20.9 0.00 0.00 0.00 80 1019.2
20260507164423 15 360 9.7 20.9 0.00 0.00 0.00 80 1019.1
20260507164324 15 360 9.7 20.9 0.00 0.00 0.00 80 1019.1
20260507164224 15 360 9.7 20.9 0.00 0.00 0.00 80 1019.1
20260507164125 15 360 9.7 20.9 0.00 0.00 0.00 80 1019.0
20260507164026 15 45 8.0 20.9 0.00 0.00 0.00 80 1019.0
20260507163927 15 360 8.0 20.9 0.00 0.00 0.00 80 1019.0
20260507163831 15 360 8.0 20.9 0.00 0.00 0.00 80 1019.0
20260507163732 15 360 8.0 20.9 0.00 0.00 0.00 80 1019.0
20260507163634 15 360 9.7 20.9 0.00 0.00 0.00 80 1018.9
20260507163534 15 51 11.3 20.9 0.00 0.00 0.00 80 1019.0
20260507163454 15 360 9.7 20.9 0.00 0.00 0.00 81 1019.0
20260507163354 15 360 9.7 19.3 0.00 0.00 0.00 81 1018.9
20260507163234 15 360 8.0 19.3 0.00 0.00 0.00 81 1018.8
20260507163119 15 360 8.0 19.3 0.00 0.00 0.00 81 1018.7
20260507163019 15 360 6.4 20.9 0.00 0.00 0.00 81 1018.9
20260507162940 15 360 6.4 20.9 0.00 0.00 0.00 81 1019.1
20260507162820 15 360 6.4 20.9 0.00 0.00 0.00 82 1019.1
20260507162741 15 360 8.0 20.9 0.00 0.00 0.00 81 1019.1
20260507162620 15 360 9.7 20.9 0.00 0.00 0.00 81 1019.1
20260507162521 15 56 9.7 24.1 0.00 0.00 0.00 81 1019.2
20260507162421 15 360 11.3 24.1 0.00 0.00 0.00 82 1019.3
20260507162344 15 360 9.7 25.7 0.00 0.00 0.00 82 1019.3
20260507162224 15 360 9.7 25.7 0.00 0.00 0.00 81 1019.3
20260507162124 15 360 9.7 25.7 0.00 0.00 0.00 82 1019.4
20260507162025 15 360 11.3 25.7 0.00 0.00 0.00 82 1019.4
20260507161925 15 360 12.9 25.7 0.00 0.00 0.00 82 1019.4
20260507161826 15 360 14.5 25.7 0.00 0.00 0.00 82 1019.3
20260507161725 15 360 12.9 25.7 0.00 0.00 0.00 82 1019.2
20260507161630 15 360 12.9 25.7 0.00 0.00 0.00 82 1019.2
20260507161530 15 360 12.9 25.7 0.00 0.00 0.00 82 1019.1
20260507161430 15 360 14.5 25.7 0.00 0.00 0.00 82 1019.0
20260507161331 15 360 16.1 25.7 0.00 0.00 0.00 82 1018.8
20260507161232 15 360 16.1 25.7 0.00 0.00 0.00 82 1019.0
20260507161133 15 360 16.1 22.5 0.00 0.00 0.00 82 1019.1
20260507161017 15 360 14.5 22.5 0.00 0.00 0.00 82 1019.3
20260507160918 15 360 14.5 24.1 0.00 0.00 0.00 82 1019.4
20260507160818 15 360 12.9 24.1 0.00 0.00 0.00 82 1019.6
20260507160719 15 18 12.9 24.1 0.00 0.00 0.00 82 1019.8
20260507160620 15 360 12.9 24.1 0.00 0.00 0.00 82 1019.9
20260507160521 15 360 12.9 24.1 0.00 0.00 0.00 82 1020.1
20260507160427 15 360 12.9 24.1 0.00 0.00 0.00 82 1020.1
20260507160327 15 360 14.5 24.1 0.00 0.00 0.00 82 1020.1
20260507160226 15 360 14.5 24.1 0.00 0.00 0.00 82 1020.1
20260507160124 15 360 14.5 24.1 0.00 0.00 0.00 82 1020.1
20260507160045 15 360 12.9 22.5 0.00 0.00 0.00 82 1020.1
20260507155925 15 360 12.9 22.5 0.00 0.00 0.00 83 1020.1
20260507155827 15 360 12.9 20.9 0.00 0.00 0.00 83 1020.1
20260507155747 15 360 14.5 20.9 0.00 0.00 0.00 83 1019.7
20260507155625 15 360 12.9 20.9 0.00 0.00 0.00 83 1019.7
20260507155530 15 360 12.9 20.9 0.00 0.00 0.00 83 1019.7
20260507155430 15 360 12.9 20.9 0.00 0.00 0.00 83 1019.5
20260507155331 15 360 11.3 20.9 0.00 0.00 0.00 83 1019.5
20260507155232 15 360 9.7 17.7 0.00 0.00 0.00 83 1019.3
20260507155132 15 360 8.0 17.7 0.00 0.00 0.00 83 1019.3
20260507155032 15 360 8.0 17.7 0.00 0.00 0.00 83 1019.1
20260507154917 15 360 8.0 22.5 0.00 0.00 0.00 83 1019.1
20260507154818 15 360 8.0 22.5 0.00 0.00 0.00 83 1019.1
20260507154719 15 360 9.7 22.5 0.00 0.00 0.00 83 1019.1
20260507154619 15 360 11.3 22.5 0.00 0.00 0.00 83 1019.2
20260507154520 15 360 11.3 22.5 0.00 0.00 0.00 83 1019.3
20260507154420 15 50 12.9 22.5 0.00 0.00 0.00 83 1019.3
20260507154324 15 360 12.9 22.5 0.00 0.00 0.00 83 1019.3
20260507154225 15 360 12.9 22.5 0.00 0.00 0.00 83 1019.4
20260507154126 15 360 12.9 22.5 0.00 0.00 0.00 83 1019.4
20260507154027 15 360 14.5 22.5 0.00 0.00 0.00 84 1019.3
20260507153948 15 360 14.5 22.5 0.00 0.00 0.00 84 1019.4
20260507153826 15 360 14.5 22.5 0.00 0.00 0.00 84 1019.4
20260507153727 15 360 14.5 22.5 0.00 0.00 0.00 84 1019.4
20260507153631 15 360 14.5 22.5 0.00 0.00 0.00 84 1019.4
20260507153532 15 360 14.5 22.5 0.00 0.00 0.00 84 1019.4
20260507153428 15 360 14.5 22.5 0.00 0.00 0.00 84 1019.4
20260507153329 15 360 14.5 22.5 0.00 0.00 0.00 84 1019.5
20260507153231 15 360 14.5 22.5 0.00 0.00 0.00 84 1019.6
20260507153132 15 360 12.9 22.5 0.00 0.00 0.00 84 1019.5
20260507153031 15 360 12.9 22.5 0.00 0.00 0.00 84 1019.5
20260507152956 15 360 11.3 22.5 0.00 0.00 0.00 84 1019.6
20260507152817 15 360 9.7 19.3 0.00 0.00 0.00 84 1019.5
20260507152717 15 360 11.3 19.3 0.00 0.00 0.00 84 1019.6
20260507152618 15 360 11.3 17.7 0.00 0.00 0.00 84 1019.5
20260507152518 15 360 9.7 16.1 0.00 0.00 0.00 85 1019.5
20260507152418 15 360 8.0 16.1 0.00 0.00 0.00 85 1019.5
20260507152338 15 360 6.4 22.5 0.00 0.00 0.00 85 1019.3
20260507152242 15 360 8.0 22.5 0.00 0.00 0.00 85 1019.3
20260507152115 15 360 8.0 25.7 0.00 0.00 0.00 85 1019.3
20260507152016 15 360 6.4 25.7 0.00 0.00 0.00 85 1019.3
20260507151918 15 360 8.0 25.7 0.00 0.00 0.00 85 1019.4
20260507151818 15 360 8.0 25.7 0.00 0.00 0.00 85 1019.4
20260507151738 15 360 11.3 25.7 0.00 0.00 0.00 85 1019.4
20260507151618 15 360 12.9 25.7 0.00 0.00 0.00 85 1019.4
20260507151542 15 360 14.5 25.7 0.00 0.00 0.00 84 1019.4
20260507151416 15 360 16.1 25.7 0.00 0.00 0.00 84 1019.6
20260507151316 15 360 17.7 25.7 0.00 0.00 0.00 84 1019.5
20260507151217 15 360 16.1 25.7 0.00 0.00 0.00 84 1019.5
20260507151117 15 360 14.5 25.7 0.00 0.00 0.00 84 1019.4
20260507151018 15 360 16.1 25.7 0.00 0.00 0.00 84 1019.6
20260507150917 15 360 14.5 25.7 0.00 0.00 0.00 84 1019.4
20260507150822 15 360 16.1 29.0 0.00 0.00 0.00 84 1019.4
20260507150742 15 360 16.1 29.0 0.00 0.00 0.00 84 1019.4
20260507150616 15 360 14.5 29.0 0.00 0.00 0.00 84 1019.3
20260507150516 15 360 14.5 29.0 0.00 0.00 0.00 84 1019.3
20260507150437 15 360 14.5 29.0 0.00 0.00 0.00 84 1019.3
20260507150336 15 11 14.5 29.0 0.00 0.00 0.00 84 1019.3
20260507150258 15 360 16.1 29.0 0.00 0.00 0.00 84 1019.3
20260507150156 15 360 17.7 29.0 0.00 0.00 0.00 84 1019.4
20260507150020 15 360 17.7 27.4 0.00 0.00 0.00 84 1019.3
20260507145940 15 360 16.1 27.4 0.00 0.00 0.00 84 1019.4
20260507145841 15 360 14.5 27.4 0.00 0.00 0.00 84 1019.3
20260507145721 15 360 12.9 25.7 0.00 0.00 0.00 84 1019.3
20260507145620 15 360 11.3 25.7 0.00 0.00 0.00 84 1019.3
20260507145541 15 360 11.3 25.7 0.00 0.00 0.00 85 1019.4
20260507145421 15 360 12.9 25.7 0.00 0.00 0.00 85 1019.4
20260507145321 15 360 14.5 25.7 0.00 0.00 0.00 85 1019.4
20260507145227 15 360 14.5 25.7 0.00 0.00 0.00 85 1019.4
20260507145127 15 360 14.5 25.7 0.00 0.00 0.00 85 1019.4
20260507145027 15 360 14.5 25.7 0.00 0.00 0.00 85 1019.4
20260507144927 15 360 14.5 25.7 0.00 0.00 0.00 85 1019.3
20260507144827 15 360 14.5 25.7 0.00 0.00 0.00 85 1019.4
20260507144747 15 360 12.9 25.7 0.00 0.00 0.00 85 1019.4
20260507144625 15 360 11.3 22.5 0.00 0.00 0.00 85 1019.5
20260507144531 15 360 12.9 22.5 0.00 0.00 0.00 85 1019.5
20260507144431 15 360 14.5 22.5 0.00 0.00 0.00 85 1019.5
20260507144331 15 360 12.9 22.5 0.00 0.00 0.00 85 1019.5
20260507144232 15 360 11.3 20.9 0.00 0.00 0.00 85 1019.6
20260507144152 15 360 9.7 20.9 0.00 0.00 0.00 85 1019.5
20260507144032 15 360 11.3 20.9 0.00 0.00 0.00 85 1019.5
20260507143932 15 360 12.9 20.9 0.00 0.00 0.00 85 1019.6
20260507143816 15 360 12.9 20.9 0.00 0.00 0.00 85 1019.6
20260507143717 15 360 11.3 19.3 0.00 0.00 0.00 85 1019.7
20260507143617 15 360 9.7 19.3 0.00 0.00 0.00 85 1019.7
20260507143539 15 360 8.0 19.3 0.00 0.00 0.00 85 1019.7
20260507143416 15 360 8.0 19.3 0.00 0.00 0.00 85 1019.7
20260507143337 15 360 8.0 19.3 0.00 0.00 0.00 85 1019.8
20260507143217 15 360 9.7 19.3 0.00 0.00 0.00 85 1019.7
20260507143117 14 360 11.3 19.3 0.00 0.00 0.00 85 1019.7
20260507143038 15 360 12.9 19.3 0.00 0.00 0.00 85 1019.7
20260507142922 15 360 11.3 19.3 0.00 0.00 0.00 85 1019.7
20260507142823 15 360 9.7 17.7 0.00 0.00 0.00 85 1019.8
20260507142743 15 360 8.0 17.7 0.00 0.00 0.00 85 1019.9
20260507142621 15 360 6.4 16.1 0.00 0.00 0.00 85 1019.8
20260507142543 15 360 6.4 16.1 0.00 0.00 0.00 85 1019.8
20260507142416 15 360 8.0 16.1 0.00 0.00 0.00 85 1019.9
20260507142316 15 360 8.0 16.1 0.00 0.00 0.00 85 1019.8
20260507142221 15 360 8.0 16.1 0.00 0.00 0.00 85 1019.9
20260507142121 14 360 8.0 16.1 0.00 0.00 0.00 85 1019.8
20260507142021 14 360 9.7 22.5 0.00 0.00 0.00 85 1019.8
20260507141942 14 360 9.7 22.5 0.00 0.00 0.00 85 1019.8
20260507141821 14 360 9.7 22.5 0.00 0.00 0.00 85 1019.7
20260507141721 14 360 8.0 22.5 0.00 0.00 0.00 85 1019.7
20260507141622 14 360 6.4 22.5 0.00 0.00 0.00 85 1019.6
20260507141543 15 360 4.8 24.1 0.00 0.00 0.00 85 1019.6
20260507141427 14 360 4.8 24.1 0.00 0.00 0.00 85 1019.6
20260507141327 14 360 6.4 24.1 0.00 0.00 0.00 86 1019.5
20260507141248 14 360 9.7 25.7 0.00 0.00 0.00 85 1019.5
20260507141127 14 360 12.9 25.7 0.00 0.00 0.00 85 1019.3
20260507141028 14 360 14.5 25.7 0.00 0.00 0.00 86 1019.4
20260507140928 14 360 14.5 25.7 0.00 0.00 0.00 86 1019.2
20260507140849 14 360 12.9 25.7 0.00 0.00 0.00 85 1019.1
20260507140748 14 360 12.9 25.7 0.00 0.00 0.00 85 1019.2
20260507140632 14 360 14.5 25.7 0.00 0.00 0.00 85 1019.0
20260507140533 14 360 16.1 25.7 0.00 0.00 0.00 85 1019.1
20260507140434 14 360 14.5 27.4 0.00 0.00 0.00 85 1019.2
20260507140355 14 360 12.9 27.4 0.00 0.00 0.00 86 1019.2
20260507140235 14 360 12.9 27.4 0.00 0.00 0.00 86 1019.3
20260507140135 14 360 11.3 27.4 0.00 0.00 0.00 86 1019.2
20260507140019 14 360 11.3 27.4 0.00 0.00 0.00 86 1019.3
20260507135941 14 360 11.3 27.4 0.00 0.00 0.00 86 1019.3
20260507135843 14 360 12.9 27.4 0.00 0.00 0.00 86 1019.3
20260507135722 14 360 12.9 27.4 0.00 0.00 0.00 85 1019.3
20260507135622 14 360 12.9 27.4 0.00 0.00 0.00 86 1019.3
20260507135543 14 360 11.3 27.4 0.00 0.00 0.00 86 1019.3
20260507135416 14 360 9.7 22.5 0.00 0.00 0.00 86 1019.3
20260507135317 14 360 11.3 22.5 0.00 0.00 0.00 86 1019.3
20260507135220 14 360 9.7 22.5 0.00 0.00 0.00 86 1019.3
20260507135120 14 360 11.3 22.5 0.00 0.00 0.00 86 1019.3
20260507135021 14 360 12.9 22.5 0.00 0.00 0.00 86 1019.4
20260507134942 14 360 12.9 22.5 0.00 0.00 0.00 86 1019.4
20260507134903 14 360 9.7 20.9 0.00 0.00 0.00 86 1019.5
20260507134715 14 360 11.3 20.9 0.00 0.00 0.00 86 1019.3
20260507134616 14 360 9.7 20.9 0.00 0.00 0.00 86 1019.4
20260507134521 14 360 9.7 20.9 0.00 0.00 0.00 86 1019.2
20260507134421 14 360 11.3 20.9 0.00 0.00 0.00 86 1019.2
20260507134342 14 360 11.3 20.9 0.00 0.00 0.00 86 1019.1
20260507134221 14 360 11.3 20.9 0.00 0.00 0.00 86 1019.1
20260507134141 14 360 11.3 20.9 0.00 0.00 0.00 86 1019.0
20260507134021 14 360 11.3 20.9 0.00 0.00 0.00 86 1019.0
20260507133924 14 360 11.3 20.9 0.00 0.00 0.00 86 1018.9
20260507133844 14 360 9.7 20.9 0.00 0.00 0.00 86 1018.9
20260507133727 14 360 9.7 17.7 0.00 0.00 0.00 86 1018.9
20260507133648 14 360 9.7 25.7 0.00 0.00 0.00 86 1018.9
20260507133548 14 360 9.7 25.7 0.00 0.00 0.00 86 1018.8
20260507133426 14 309 9.7 25.7 0.00 0.00 0.00 86 1018.9
20260507133327 14 360 9.7 25.7 0.00 0.00 0.00 86 1018.9
20260507133227 14 360 9.7 25.7 0.00 0.00 0.00 86 1018.9
20260507133127 14 360 9.7 25.7 0.00 0.00 0.00 86 1018.9
20260507133028 14 360 9.7 25.7 0.00 0.00 0.00 86 1018.9
20260507132932 14 360 11.3 25.7 0.00 0.00 0.00 86 1018.9
20260507132853 14 360 12.9 27.4 0.00 0.00 0.00 86 1018.8
20260507132733 14 360 12.9 27.4 0.00 0.00 0.00 86 1018.7
20260507132652 14 360 12.9 27.4 0.00 0.00 0.00 86 1018.8
20260507132532 14 360 12.9 27.4 0.00 0.00 0.00 86 1018.6
20260507132433 14 360 11.3 27.4 0.00 0.00 0.00 86 1018.7
20260507132334 14 360 12.9 27.4 0.00 0.00 0.00 87 1018.6
20260507132219 14 360 12.9 27.4 0.00 0.00 0.00 87 1018.5
20260507132139 14 360 14.5 27.4 0.00 0.00 0.00 86 1018.5
20260507132018 14 360 14.5 27.4 0.00 0.00 0.00 86 1018.5
20260507131919 14 360 14.5 27.4 0.00 0.00 0.00 87 1018.5
20260507131819 14 360 14.5 27.4 0.00 0.00 0.00 87 1018.5
20260507131721 14 360 14.5 30.6 0.00 0.00 0.00 87 1018.5
20260507131620 14 360 12.9 30.6 0.00 0.00 0.00 86 1018.6
20260507131546 14 360 12.9 30.6 0.00 0.00 0.00 86 1018.7
20260507131426 14 360 12.9 30.6 0.00 0.00 0.00 86 1018.7
20260507131326 14 360 12.9 30.6 0.00 0.00 0.00 86 1018.6
20260507131227 14 360 14.5 30.6 0.00 0.00 0.00 86 1018.6
20260507131126 14 360 14.5 30.6 0.00 0.00 0.00 86 1018.7
20260507131027 14 360 14.5 30.6 0.00 0.00 0.00 86 1018.6
20260507130927 14 360 12.9 25.7 0.00 0.00 0.00 86 1018.6
20260507130831 14 360 12.9 25.7 0.00 0.00 0.00 86 1018.6
20260507130733 14 360 12.9 25.7 0.00 0.00 0.00 86 1018.6
20260507130633 14 360 12.9 25.7 0.00 0.00 0.00 86 1018.6
20260507130532 14 360 12.9 24.1 0.00 0.00 0.00 86 1018.7
20260507130433 14 360 12.9 24.1 0.00 0.00 0.00 86 1018.7
20260507130335 14 360 14.5 30.6 0.00 0.00 0.00 86 1018.6
20260507130219 14 360 14.5 30.6 0.00 0.00 0.00 86 1018.6
20260507130119 14 360 16.1 30.6 0.00 0.00 0.00 86 1018.6
20260507130020 14 360 16.1 30.6 0.00 0.00 0.00 86 1018.7
20260507125920 14 360 17.7 30.6 0.00 0.00 0.00 86 1018.8
20260507125822 14 360 19.3 30.6 0.00 0.00 0.00 86 1018.8
20260507125723 14 360 17.7 30.6 0.00 0.00 0.00 86 1018.9
20260507125624 14 360 17.7 30.6 0.00 0.00 0.00 86 1019.0
20260507125528 14 360 16.1 30.6 0.00 0.00 0.00 86 1019.0
20260507125428 14 360 16.1 30.6 0.00 0.00 0.00 86 1019.1
20260507125329 14 360 12.9 27.4 0.00 0.00 0.00 86 1019.0
20260507125250 14 360 14.5 25.7 0.00 0.00 0.00 86 1019.0
20260507125130 14 360 14.5 25.7 0.00 0.00 0.00 86 1019.1
20260507125031 14 360 14.5 25.7 0.00 0.00 0.00 86 1019.1
20260507124931 14 360 16.1 25.7 0.00 0.00 0.00 86 1019.1
20260507124816 14 360 16.1 24.1 0.00 0.00 0.00 86 1019.0
20260507124716 14 360 16.1 24.1 0.00 0.00 0.00 86 1019.1
20260507124617 14 360 16.1 24.1 0.00 0.00 0.00 86 1018.9
20260507124516 14 360 14.5 22.5 0.00 0.00 0.00 86 1018.8
20260507124437 14 360 14.5 22.5 0.00 0.00 0.00 86 1018.7
20260507124337 14 360 14.5 22.5 0.00 0.00 0.00 86 1018.7
20260507124216 14 360 14.5 22.5 0.00 0.00 0.00 86 1018.6
20260507124121 14 360 12.9 22.5 0.00 0.00 0.00 86 1018.6
20260507124021 14 360 11.3 22.5 0.00 0.00 0.00 86 1018.5
20260507123942 14 360 11.3 22.5 0.00 0.00 0.00 86 1018.5
20260507123821 14 360 11.3 24.1 0.00 0.00 0.00 86 1018.5
20260507123742 14 360 12.9 24.1 0.00 0.00 0.00 86 1018.5
20260507123616 14 360 14.5 24.1 0.00 0.00 0.00 86 1018.4
20260507123516 14 360 14.5 24.1 0.00 0.00 0.00 86 1018.5
20260507123421 14 360 14.5 24.1 0.00 0.00 0.00 86 1018.5
20260507123322 14 360 14.5 24.1 0.00 0.00 0.00 86 1018.4
20260507123221 14 360 14.5 24.1 0.00 0.00 0.00 86 1018.4
20260507123142 14 360 16.1 24.1 0.00 0.00 0.00 86 1018.4
20260507123016 14 360 16.1 24.1 0.00 0.00 0.00 86 1018.4
20260507122917 14 360 14.5 22.5 0.00 0.00 0.00 86 1018.4
20260507122823 14 360 14.5 22.5 0.00 0.00 0.00 86 1018.4
20260507122742 14 360 12.9 22.5 0.00 0.00 0.00 86 1018.4
20260507122622 14 360 12.9 22.5 0.00 0.00 0.00 86 1018.4
20260507122523 14 360 11.3 22.5 0.00 0.00 0.00 86 1018.4
20260507122422 14 360 11.3 22.5 0.00 0.00 0.00 86 1018.4
20260507122324 14 360 9.7 22.5 0.00 0.00 0.00 85 1018.5
20260507122224 14 26 11.3 22.5 0.00 0.00 0.00 86 1018.6
20260507122130 14 360 11.3 22.5 0.00 0.00 0.00 86 1018.6
20260507122031 14 360 12.9 25.7 0.00 0.00 0.00 86 1018.6
20260507121930 14 360 11.3 25.7 0.00 0.00 0.00 86 1018.6
20260507121830 14 360 12.9 25.7 0.00 0.00 0.00 86 1018.6
20260507121732 14 360 12.9 25.7 0.00 0.00 0.00 86 1018.5
20260507121632 14 360 12.9 25.7 0.00 0.00 0.00 86 1018.5
20260507121532 14 360 11.3 25.7 0.00 0.00 0.00 86 1018.5
20260507121416 14 360 12.9 25.7 0.00 0.00 0.00 86 1018.5
20260507121316 14 360 12.9 25.7 0.00 0.00 0.00 86 1018.4
20260507121216 14 360 12.9 25.7 0.00 0.00 0.00 86 1018.3
20260507121117 14 360 11.3 25.7 0.00 0.00 0.00 86 1018.3
20260507121018 14 360 11.3 25.7 0.00 0.00 0.00 86 1018.2
20260507120919 14 360 11.3 25.7 0.00 0.00 0.00 86 1018.2
20260507120838 14 360 11.3 25.7 0.00 0.00 0.00 86 1018.2
20260507120722 14 360 12.9 25.7 0.00 0.00 0.00 86 1018.1
20260507120622 14 360 12.9 25.7 0.00 0.00 0.00 86 1018.2
20260507120543 14 360 11.3 25.7 0.00 0.00 0.00 86 1018.1
20260507120423 14 360 11.3 25.7 0.00 0.00 0.00 86 1018.0
20260507120343 14 360 12.9 27.4 0.00 0.00 0.00 86 1018.0
20260507120243 14 360 12.9 27.4 0.00 0.00 0.00 86 1018.0
20260507120203 14 360 14.5 27.4 0.00 0.00 0.00 86 1018.0
20260507120103 14 360 16.1 27.4 0.00 0.00 0.00 86 1018.0
20260507115916 14 360 16.1 33.8 0.00 0.00 0.00 86 1018.0
20260507115842 14 360 16.1 33.8 0.00 0.00 0.00 86 1018.0
20260507115721 14 360 14.5 33.8 0.00 0.00 0.00 86 1018.0
20260507115622 14 360 14.5 33.8 0.00 0.00 0.00 86 1018.0
20260507115522 14 360 12.9 33.8 0.00 0.00 0.00 86 1017.9
20260507115443 14 360 12.9 33.8 0.00 0.00 0.00 86 1017.9
20260507115322 14 360 12.9 33.8 0.00 0.00 0.00 86 1017.9
20260507115222 14 360 14.5 33.8 0.00 0.00 0.00 86 1017.9
20260507115123 14 360 16.1 33.8 0.00 0.00 0.00 86 1017.9
20260507115028 14 360 16.1 33.8 0.00 0.00 0.00 85 1017.9
20260507114927 14 360 16.1 33.8 0.00 0.00 0.00 85 1017.9
20260507114828 14 360 16.1 33.8 0.00 0.00 0.00 85 1017.9
20260507114727 14 360 14.5 33.8 0.00 0.00 0.00 85 1017.8
20260507114627 14 360 12.9 22.5 0.00 0.00 0.00 85 1017.9
20260507114527 14 360 11.3 24.1 0.00 0.00 0.00 85 1017.9
20260507114427 14 360 9.7 24.1 0.00 0.00 0.00 85 1018.0
20260507114333 14 360 9.7 24.1 0.00 0.00 0.00 85 1018.0
20260507114255 14 360 9.7 24.1 0.00 0.00 0.00 85 1018.0
20260507114133 14 360 12.9 25.7 0.00 0.00 0.00 85 1018.1
20260507114034 14 360 14.5 25.7 0.00 0.00 0.00 85 1018.1
20260507113934 14 360 14.5 25.7 0.00 0.00 0.00 85 1018.1
20260507113855 14 360 12.9 25.7 0.00 0.00 0.00 85 1018.2
20260507113734 14 360 14.5 25.7 0.00 0.00 0.00 85 1018.1
20260507113618 14 360 14.5 27.4 0.00 0.00 0.00 85 1018.0
20260507113539 14 360 14.5 27.4 0.00 0.00 0.00 85 1018.0
20260507113419 14 360 16.1 29.0 0.00 0.00 0.00 85 1018.0
20260507113319 14 360 14.5 29.0 0.00 0.00 0.00 85 1018.0
20260507113219 14 360 14.5 29.0 0.00 0.00 0.00 85 1018.0
20260507113120 14 360 14.5 29.0 0.00 0.00 0.00 85 1018.0
20260507113023 14 360 14.5 29.0 0.00 0.00 0.00 85 1017.9
20260507112926 14 360 12.9 29.0 0.00 0.00 0.00 85 1017.9
20260507112826 15 360 12.9 29.0 0.00 0.00 0.00 85 1017.9
20260507112728 14 360 11.3 29.0 0.00 0.00 0.00 85 1017.8
20260507112627 15 360 11.3 29.0 0.00 0.00 0.00 85 1017.7
20260507112527 15 360 14.5 29.0 0.00 0.00 0.00 85 1017.7
20260507112428 15 360 14.5 29.0 0.00 0.00 0.00 85 1017.7
20260507112328 15 360 16.1 29.0 0.00 0.00 0.00 85 1017.7
20260507112252 15 360 16.1 29.0 0.00 0.00 0.00 85 1017.7
20260507112132 15 360 16.1 27.4 0.00 0.00 0.00 85 1017.7
20260507112033 15 360 16.1 25.7 0.00 0.00 0.00 85 1017.6
20260507111954 15 360 16.1 25.7 0.00 0.00 0.00 85 1017.7
20260507111835 15 360 14.5 24.1 0.00 0.00 0.00 85 1017.7
20260507111735 15 360 14.5 24.1 0.00 0.00 0.00 85 1017.7
20260507111634 15 360 14.5 24.1 0.00 0.00 0.00 85 1017.7
20260507111519 15 360 14.5 20.9 0.00 0.00 0.00 85 1017.6
20260507111420 15 360 12.9 20.9 0.00 0.00 0.00 85 1017.7
20260507111340 15 360 12.9 20.9 0.00 0.00 0.00 85 1017.6
20260507111240 15 360 12.9 19.3 0.00 0.00 0.00 85 1017.7
20260507111119 15 360 12.9 19.3 0.00 0.00 0.00 85 1017.6
20260507111020 15 360 12.9 27.4 0.00 0.00 0.00 85 1017.6
20260507110921 15 360 11.3 27.4 0.00 0.00 0.00 85 1017.6
20260507110826 15 360 11.3 27.4 0.00 0.00 0.00 85 1017.6
20260507110747 15 360 11.3 27.4 0.00 0.00 0.00 85 1017.6
20260507110625 15 360 12.9 27.4 0.00 0.00 0.00 85 1017.6
20260507110546 14 360 12.9 27.4 0.00 0.00 0.00 85 1017.6
20260507110426 15 360 12.9 27.4 0.00 0.00 0.00 85 1017.6
20260507110348 14 360 12.9 27.4 0.00 0.00 0.00 85 1017.6
20260507110227 14 360 12.9 27.4 0.00 0.00 0.00 85 1017.6
20260507110148 14 360 12.9 22.5 0.00 0.00 0.00 85 1017.6
20260507110027 14 360 11.3 22.5 0.00 0.00 0.00 85 1017.6
20260507105932 14 360 9.7 22.5 0.00 0.00 0.00 85 1017.6
20260507105853 14 360 9.7 22.5 0.00 0.00 0.00 85 1017.6
20260507105734 14 360 11.3 22.5 0.00 0.00 0.00 85 1017.6
20260507105653 15 360 11.3 32.2 0.00 0.00 0.00 85 1017.6
20260507105532 15 360 11.3 32.2 0.00 0.00 0.00 85 1017.6
20260507105434 14 360 12.9 32.2 0.00 0.00 0.00 85 1017.5
20260507105316 14 360 16.1 32.2 0.00 0.00 0.00 85 1017.5
20260507105219 14 360 16.1 32.2 0.00 0.00 0.00 85 1017.5
20260507105120 15 360 16.1 32.2 0.00 0.00 0.00 85 1017.5
20260507105040 15 360 16.1 32.2 0.00 0.00 0.00 85 1017.5
20260507104920 15 360 16.1 32.2 0.00 0.00 0.00 85 1017.5
20260507104819 15 23 14.5 32.2 0.00 0.00 0.00 85 1017.5
20260507104720 15 360 12.9 25.7 0.00 0.00 0.00 85 1017.6
20260507104641 15 360 12.9 25.7 0.00 0.00 0.00 85 1017.5
20260507104540 15 360 14.5 29.0 0.00 0.00 0.00 85 1017.6
20260507104424 15 360 14.5 29.0 0.00 0.00 0.00 85 1017.6
20260507104325 15 360 14.5 29.0 0.00 0.00 0.00 85 1017.6
20260507104225 15 360 16.1 29.0 0.00 0.00 0.00 85 1017.6
20260507104126 15 360 17.7 29.0 0.00 0.00 0.00 85 1017.6
20260507104026 15 360 17.7 29.0 0.00 0.00 0.00 85 1017.6
20260507103926 15 360 17.7 29.0 0.00 0.00 0.00 85 1017.6
20260507103831 15 360 17.7 29.0 0.00 0.00 0.00 85 1017.6
20260507103731 15 360 17.7 29.0 0.00 0.00 0.00 85 1017.6
20260507103631 15 360 16.1 29.0 0.00 0.00 0.00 85 1017.7
20260507103531 15 360 17.7 29.0 0.00 0.00 0.00 85 1017.7
20260507103432 15 360 17.7 29.0 0.00 0.00 0.00 85 1017.7
20260507103332 15 360 17.7 29.0 0.00 0.00 0.00 85 1017.7
20260507103216 15 360 16.1 24.1 0.00 0.00 0.00 84 1017.6
20260507103118 15 360 14.5 24.1 0.00 0.00 0.00 84 1017.6
20260507103018 15 360 12.9 24.1 0.00 0.00 0.00 84 1017.5
20260507102918 15 360 11.3 22.5 0.00 0.00 0.00 84 1017.7
20260507102819 15 360 11.3 22.5 0.00 0.00 0.00 84 1017.6
20260507102718 15 360 11.3 22.5 0.00 0.00 0.00 84 1017.6
20260507102619 15 360 11.3 22.5 0.00 0.00 0.00 84 1017.6
20260507102523 15 360 12.9 22.5 0.00 0.00 0.00 84 1017.4
20260507102424 15 360 12.9 22.5 0.00 0.00 0.00 84 1017.4
20260507102323 15 360 14.5 22.5 0.00 0.00 0.00 84 1017.3
20260507102245 15 360 12.9 22.5 0.00 0.00 0.00 84 1017.3
20260507102123 15 360 12.9 22.5 0.00 0.00 0.00 84 1017.2
20260507102024 15 360 11.3 20.9 0.00 0.00 0.00 84 1017.2
20260507101925 15 360 9.7 20.9 0.00 0.00 0.00 84 1017.1
20260507101828 15 360 8.0 16.1 0.00 0.00 0.00 85 1017.1
20260507101749 15 360 8.0 16.1 0.00 0.00 0.00 85 1017.1
20260507101629 15 360 8.0 16.1 0.00 0.00 0.00 84 1017.0
20260507101530 15 360 8.0 16.1 0.00 0.00 0.00 84 1016.9
20260507101430 15 360 8.0 17.7 0.00 0.00 0.00 84 1017.0
20260507101350 15 360 8.0 17.7 0.00 0.00 0.00 84 1017.0
20260507101231 15 360 8.0 17.7 0.00 0.00 0.00 84 1017.1
20260507101135 15 360 9.7 17.7 0.00 0.00 0.00 84 1017.0
20260507101036 15 360 9.7 17.7 0.00 0.00 0.00 84 1017.1
20260507100956 15 360 9.7 17.7 0.00 0.00 0.00 84 1017.2
20260507100855 15 360 9.7 17.7 0.00 0.00 0.00 84 1017.2
20260507100735 15 360 8.0 20.9 0.00 0.00 0.00 84 1017.3
20260507100636 15 360 8.0 20.9 0.00 0.00 0.00 84 1017.3
20260507100556 15 360 6.4 20.9 0.00 0.00 0.00 84 1017.3
20260507100435 15 360 6.4 20.9 0.00 0.00 0.00 84 1017.2
20260507100320 15 360 8.0 20.9 0.00 0.00 0.00 84 1017.0
20260507100220 15 360 8.0 20.9 0.00 0.00 0.00 84 1017.0
20260507100122 15 360 9.7 24.1 0.00 0.00 0.00 84 1017.0
20260507100042 15 360 11.3 24.1 0.00 0.00 0.00 84 1017.0
20260507095921 15 360 12.9 24.1 0.00 0.00 0.00 84 1017.0
20260507095824 15 360 11.3 24.1 0.00 0.00 0.00 84 1017.1
20260507095723 15 360 12.9 24.1 0.00 0.00 0.00 84 1017.1
20260507095627 15 360 12.9 24.1 0.00 0.00 0.00 84 1017.1
20260507095528 15 360 12.9 24.1 0.00 0.00 0.00 84 1017.1
20260507095430 15 360 12.9 24.1 0.00 0.00 0.00 84 1017.1
20260507095331 15 360 12.9 24.1 0.00 0.00 0.00 84 1017.0
20260507095231 15 360 12.9 24.1 0.00 0.00 0.00 84 1016.9
20260507095152 15 360 11.3 24.1 0.00 0.00 0.00 84 1016.9
20260507095031 15 360 12.9 24.1 0.00 0.00 0.00 84 1016.8
20260507094916 15 360 14.5 24.1 0.00 0.00 0.00 84 1016.7
20260507094817 15 360 14.5 24.1 0.00 0.00 0.00 84 1016.8
20260507094717 15 360 14.5 24.1 0.00 0.00 0.00 84 1017.0
20260507094617 15 360 12.9 24.1 0.00 0.00 0.00 84 1017.0
20260507094538 15 360 9.7 24.1 0.00 0.00 0.00 84 1017.1
20260507094419 15 360 9.7 24.1 0.00 0.00 0.00 84 1017.1
20260507094318 15 360 8.0 19.3 0.00 0.00 0.00 84 1017.2
20260507094223 15 360 8.0 19.3 0.00 0.00 0.00 84 1017.2
20260507094123 15 360 8.0 19.3 0.00 0.00 0.00 84 1017.2
20260507094024 15 360 8.0 19.3 0.00 0.00 0.00 84 1017.1
20260507093924 15 360 8.0 20.9 0.00 0.00 0.00 84 1017.0
20260507093825 15 360 8.0 22.5 0.00 0.00 0.00 84 1016.9
20260507093725 15 360 9.7 22.5 0.00 0.00 0.00 84 1016.9
20260507093629 15 360 9.7 22.5 0.00 0.00 0.00 84 1016.9
20260507093550 15 360 9.7 22.5 0.00 0.00 0.00 83 1016.9
20260507093450 15 360 12.9 22.5 0.00 0.00 0.00 83 1016.9
20260507093330 15 360 12.9 22.5 0.00 0.00 0.00 83 1016.9
20260507093231 15 360 11.3 22.5 0.00 0.00 0.00 83 1017.0
20260507093131 15 360 12.9 22.5 0.00 0.00 0.00 83 1017.0
20260507093032 15 360 12.9 22.5 0.00 0.00 0.00 83 1017.1
20260507092916 15 360 11.3 22.5 0.00 0.00 0.00 83 1017.0
20260507092818 15 360 12.9 20.9 0.00 0.00 0.00 83 1016.9
20260507092717 15 360 12.9 20.9 0.00 0.00 0.00 83 1016.9
20260507092618 15 360 12.9 19.3 0.00 0.00 0.00 83 1016.9
20260507092539 15 360 11.3 17.7 0.00 0.00 0.00 83 1016.9
20260507092419 15 360 11.3 17.7 0.00 0.00 0.00 83 1017.0
20260507092319 15 360 9.7 14.5 0.00 0.00 0.00 83 1017.0
20260507092225 15 360 9.7 14.5 0.00 0.00 0.00 83 1017.0
20260507092126 15 360 9.7 14.5 0.00 0.00 0.00 83 1017.0
20260507092026 15 360 8.0 14.5 0.00 0.00 0.00 83 1016.9
20260507091926 15 360 8.0 14.5 0.00 0.00 0.00 83 1016.9
20260507091827 15 360 8.0 14.5 0.00 0.00 0.00 83 1016.9
20260507091728 15 360 6.4 14.5 0.00 0.00 0.00 83 1017.0
20260507091629 15 360 6.4 14.5 0.00 0.00 0.00 83 1016.9
20260507091534 15 360 6.4 16.1 0.00 0.00 0.00 83 1017.1
20260507091434 15 360 6.4 16.1 0.00 0.00 0.00 83 1017.1
20260507091335 15 360 6.4 16.1 0.00 0.00 0.00 83 1017.1
20260507091255 15 360 8.0 16.1 0.00 0.00 0.00 83 1017.1
20260507091156 15 360 8.0 16.1 0.00 0.00 0.00 83 1017.1
20260507091035 15 360 8.0 16.1 0.00 0.00 0.00 83 1017.1
20260507090956 15 360 9.7 16.1 0.00 0.00 0.00 83 1017.1
20260507090819 15 360 8.0 14.5 0.00 0.00 0.00 83 1017.0
20260507090720 15 360 8.0 14.5 0.00 0.00 0.00 83 1017.0
20260507090620 15 360 6.4 14.5 0.00 0.00 0.00 83 1017.0
20260507090521 15 360 6.4 12.9 0.00 0.00 0.00 83 1016.9
20260507090422 15 360 6.4 12.9 0.00 0.00 0.00 83 1016.9
20260507090321 15 360 4.8 12.9 0.00 0.00 0.00 83 1016.9
20260507090222 15 360 4.8 12.9 0.00 0.00 0.00 83 1016.8
20260507090127 15 360 4.8 12.9 0.00 0.00 0.00 83 1016.8
20260507090027 15 360 4.8 12.9 0.00 0.00 0.00 83 1016.8
20260507085948 15 360 4.8 12.9 0.00 0.00 0.00 83 1016.7
20260507085827 15 360 4.8 12.9 0.00 0.00 0.00 83 1016.6
20260507085728 15 360 6.4 12.9 0.00 0.00 0.00 83 1016.6
20260507085627 15 360 6.4 12.9 0.00 0.00 0.00 83 1016.6
20260507085527 15 360 6.4 12.9 0.00 0.00 0.00 83 1016.7
20260507085431 15 360 6.4 12.9 0.00 0.00 0.00 83 1016.7
20260507085332 15 360 6.4 12.9 0.00 0.00 0.00 83 1016.7
20260507085251 15 360 6.4 12.9 0.00 0.00 0.00 83 1016.7
20260507085151 15 360 4.8 12.9 0.00 0.00 0.00 83 1016.7
20260507085050 15 360 4.8 12.9 0.00 0.00 0.00 83 1016.7
20260507084931 15 360 4.8 8.0 0.00 0.00 0.00 83 1016.7
20260507084832 15 360 4.8 8.0 0.00 0.00 0.00 83 1016.6
20260507084733 15 360 4.8 8.0 0.00 0.00 0.00 83 1016.7
20260507084618 15 360 3.2 6.4 0.00 0.00 0.00 83 1016.7
20260507084518 15 360 3.2 6.4 0.00 0.00 0.00 83 1016.8
20260507084438 15 360 3.2 6.4 0.00 0.00 0.00 83 1016.8
20260507084318 15 360 3.2 6.4 0.00 0.00 0.00 83 1016.8
20260507084219 15 360 3.2 8.0 0.00 0.00 0.00 83 1016.8
20260507084140 15 57 3.2 8.0 0.00 0.00 0.00 83 1016.7
20260507084019 15 360 3.2 14.5 0.00 0.00 0.00 83 1016.6
20260507083923 15 360 4.8 14.5 0.00 0.00 0.00 83 1016.5
20260507083824 15 360 4.8 14.5 0.00 0.00 0.00 83 1016.5
20260507083725 15 360 4.8 14.5 0.00 0.00 0.00 83 1016.5
20260507083646 15 360 4.8 14.5 0.00 0.00 0.00 83 1016.5
20260507083525 15 360 4.8 14.5 0.00 0.00 0.00 83 1016.6
20260507083446 15 360 4.8 14.5 0.00 0.00 0.00 83 1016.5
20260507083324 15 360 4.8 14.5 0.00 0.00 0.00 83 1016.6
20260507083244 15 360 6.4 14.5 0.00 0.00 0.00 83 1016.7
20260507083128 15 360 6.4 12.9 0.00 0.00 0.00 83 1016.7
20260507083029 15 360 6.4 12.9 0.00 0.00 0.00 83 1016.6
20260507082930 15 360 6.4 12.9 0.00 0.00 0.00 83 1016.7
20260507082830 15 360 4.8 12.9 0.00 0.00 0.00 83 1016.7
20260507082732 15 360 3.2 12.9 0.00 0.00 0.00 83 1016.7
20260507082631 15 360 3.2 8.0 0.00 0.00 0.00 83 1016.6
20260507082516 15 360 3.2 8.0 0.00 0.00 0.00 82 1016.7
20260507082416 15 360 3.2 8.0 0.00 0.00 0.00 82 1016.7
20260507082317 15 360 3.2 8.0 0.00 0.00 0.00 82 1016.7
20260507082217 15 360 3.2 20.9 0.00 0.00 0.00 82 1016.6
20260507082118 15 360 3.2 20.9 0.00 0.00 0.00 82 1016.6
20260507082017 15 360 4.8 20.9 0.00 0.00 0.00 82 1016.7
20260507081918 15 360 4.8 20.9 0.00 0.00 0.00 82 1016.6
20260507081823 15 360 4.8 20.9 0.00 0.00 0.00 82 1016.7
20260507081744 15 360 4.8 20.9 0.00 0.00 0.00 82 1016.7
20260507081643 15 65 6.4 20.9 0.00 0.00 0.00 82 1016.8
20260507081543 15 360 4.8 20.9 0.00 0.00 0.00 82 1016.8
20260507081422 15 360 6.4 20.9 0.00 0.00 0.00 82 1016.8
20260507081322 15 360 8.0 20.9 0.00 0.00 0.00 82 1016.6
20260507081244 15 360 9.7 20.9 0.00 0.00 0.00 82 1016.3
20260507081122 15 360 9.7 20.9 0.00 0.00 0.00 82 1016.1
20260507081043 15 360 11.3 20.9 0.00 0.00 0.00 82 1016.1
20260507080927 15 360 11.3 20.9 0.00 0.00 0.00 82 1016.1
20260507080827 15 360 11.3 20.9 0.00 0.00 0.00 82 1016.2
20260507080729 15 360 11.3 17.7 0.00 0.00 0.00 82 1016.1
20260507080629 15 360 11.3 17.7 0.00 0.00 0.00 82 1016.2
20260507080530 15 360 9.7 16.1 0.00 0.00 0.00 82 1016.3
20260507080432 15 360 8.0 16.1 0.00 0.00 0.00 82 1016.4
20260507080331 15 360 6.4 16.1 0.00 0.00 0.00 82 1016.3
20260507080235 15 360 6.4 16.1 0.00 0.00 0.00 82 1016.4
20260507080135 15 360 4.8 16.1 0.00 0.00 0.00 82 1016.3
20260507080035 15 360 4.8 16.1 0.00 0.00 0.00 82 1016.2
20260507075916 15 61 8.0 16.1 0.00 0.00 0.00 82 1016.1
20260507075817 15 360 8.0 16.1 0.00 0.00 0.00 82 1016.1
20260507075718 15 360 8.0 16.1 0.00 0.00 0.00 82 1016.1
20260507075622 15 360 8.0 16.1 0.00 0.00 0.00 82 1016.0
20260507075522 15 360 8.0 16.1 0.00 0.00 0.00 82 1016.0
20260507075442 15 360 8.0 14.5 0.00 0.00 0.00 82 1016.1
20260507075322 15 360 6.4 14.5 0.00 0.00 0.00 82 1016.1
20260507075223 15 360 8.0 14.5 0.00 0.00 0.00 82 1016.2
20260507075124 15 360 8.0 14.5 0.00 0.00 0.00 82 1016.3
20260507075024 15 360 8.0 20.9 0.00 0.00 0.00 82 1016.5
20260507074930 15 360 8.0 20.9 0.00 0.00 0.00 82 1016.5
20260507074830 15 360 8.0 20.9 0.00 0.00 0.00 82 1016.6
20260507074751 15 360 6.4 20.9 0.00 0.00 0.00 82 1016.7
20260507074631 15 360 6.4 20.9 0.00 0.00 0.00 82 1016.7
20260507074532 15 360 6.4 20.9 0.00 0.00 0.00 82 1016.6
20260507074431 15 360 8.0 20.9 0.00 0.00 0.00 81 1016.5
20260507074332 15 360 8.0 20.9 0.00 0.00 0.00 81 1016.3
20260507074217 15 360 8.0 20.9 0.00 0.00 0.00 81 1016.1
20260507074118 15 360 9.7 20.9 0.00 0.00 0.00 81 1016.1
20260507074018 15 360 9.7 20.9 0.00 0.00 0.00 81 1016.0
20260507073920 15 360 11.3 20.9 0.00 0.00 0.00 81 1016.1
20260507073840 15 360 11.3 20.9 0.00 0.00 0.00 81 1015.9
20260507073721 15 360 11.3 20.9 0.00 0.00 0.00 81 1016.0
20260507073622 15 360 9.7 16.1 0.00 0.00 0.00 81 1016.0
20260507073547 15 360 9.7 16.1 0.00 0.00 0.00 81 1016.0
20260507073426 15 360 8.0 16.1 0.00 0.00 0.00 81 1015.9
20260507073327 15 360 8.0 17.7 0.00 0.00 0.00 81 1015.9
20260507073247 15 360 8.0 17.7 0.00 0.00 0.00 81 1015.8
20260507073125 15 360 8.0 17.7 0.00 0.00 0.00 81 1015.9
20260507073027 15 360 8.0 17.7 0.00 0.00 0.00 81 1015.9
20260507072947 15 360 9.7 17.7 0.00 0.00 0.00 81 1016.0
20260507072827 15 360 9.7 17.7 0.00 0.00 0.00 81 1016.0
20260507072732 15 360 9.7 17.7 0.00 0.00 0.00 81 1016.1
20260507072632 15 360 9.7 17.7 0.00 0.00 0.00 81 1016.1
20260507072553 15 360 8.0 17.7 0.00 0.00 0.00 81 1016.1
20260507072433 15 360 8.0 17.7 0.00 0.00 0.00 81 1016.1
20260507072334 15 360 8.0 17.7 0.00 0.00 0.00 81 1016.3
20260507072216 15 360 8.0 17.7 0.00 0.00 0.00 81 1016.3
20260507072120 16 360 8.0 17.7 0.00 0.00 0.00 81 1016.4
20260507072022 15 360 9.7 17.7 0.00 0.00 0.00 81 1016.4
20260507071923 15 360 9.7 17.7 0.00 0.00 0.00 81 1016.5
20260507071843 15 360 8.0 17.7 0.00 0.00 0.00 81 1016.4
20260507071723 16 360 8.0 17.7 0.00 0.00 0.00 81 1016.3
20260507071623 16 67 8.0 17.7 0.00 0.00 0.00 81 1016.4
20260507071524 15 360 8.0 17.7 0.00 0.00 0.00 81 1016.3
20260507071429 15 360 8.0 17.7 0.00 0.00 0.00 81 1016.3
20260507071330 16 360 6.4 17.7 0.00 0.00 0.00 81 1016.4
20260507071231 16 360 8.0 20.9 0.00 0.00 0.00 81 1016.3
20260507071131 16 360 8.0 20.9 0.00 0.00 0.00 81 1016.2
20260507071032 16 360 9.7 20.9 0.00 0.00 0.00 81 1016.2
20260507070932 16 360 9.7 20.9 0.00 0.00 0.00 81 1016.2
20260507070817 16 360 9.7 20.9 0.00 0.00 0.00 81 1016.0
20260507070717 16 360 9.7 20.9 0.00 0.00 0.00 81 1016.0
20260507070638 16 360 9.7 20.9 0.00 0.00 0.00 81 1016.0
20260507070537 16 360 9.7 20.9 0.00 0.00 0.00 81 1016.0
20260507070435 16 360 9.7 20.9 0.00 0.00 0.00 81 1015.9
20260507070357 16 360 9.7 16.1 0.00 0.00 0.00 81 1015.9
20260507070235 16 360 8.0 16.1 0.00 0.00 0.00 81 1016.0
20260507070153 16 360 9.7 16.1 0.00 0.00 0.00 81 1016.0
20260507070033 16 360 8.0 14.5 0.00 0.00 0.00 81 1016.0
20260507065932 16 360 8.0 14.5 0.00 0.00 0.00 81 1016.2
20260507065856 16 360 6.4 14.5 0.00 0.00 0.00 81 1016.4
20260507065733 16 360 4.8 14.5 0.00 0.00 0.00 81 1016.5
20260507065650 16 60 4.8 9.7 0.00 0.00 0.00 81 1016.6
20260507065528 16 47 3.2 9.7 0.00 0.00 0.00 81 1016.6
20260507065427 16 360 3.2 6.4 0.00 0.00 0.00 81 1016.7
20260507065327 16 360 3.2 6.4 0.00 0.00 0.00 81 1016.5
20260507065245 16 360 3.2 6.4 0.00 0.00 0.00 81 1016.4
20260507065122 16 360 3.2 6.4 0.00 0.00 0.00 81 1016.4
20260507065022 16 360 3.2 9.7 0.00 0.00 0.00 81 1016.4
20260507064927 16 360 3.2 12.9 0.00 0.00 0.00 81 1016.4
20260507064827 16 360 4.8 12.9 0.00 0.00 0.00 81 1016.3
20260507064727 16 360 4.8 12.9 0.00 0.00 0.00 81 1016.4
20260507064648 16 360 3.2 12.9 0.00 0.00 0.00 81 1016.3
20260507064527 16 360 4.8 12.9 0.00 0.00 0.00 81 1016.3
20260507064427 16 360 4.8 12.9 0.00 0.00 0.00 81 1016.3
20260507064327 16 360 4.8 14.5 0.00 0.00 0.00 81 1016.4
20260507064232 16 76 4.8 14.5 0.00 0.00 0.00 81 1016.4
20260507064133 16 360 4.8 14.5 0.00 0.00 0.00 81 1016.4
20260507064033 16 360 6.4 14.5 0.00 0.00 0.00 81 1016.3
20260507063933 16 360 6.4 14.5 0.00 0.00 0.00 81 1016.4
20260507063833 16 360 6.4 20.9 0.00 0.00 0.00 81 1016.3
20260507063734 16 360 6.4 20.9 0.00 0.00 0.00 81 1016.3
20260507063618 16 66 6.4 20.9 0.00 0.00 0.00 81 1016.2
20260507063518 16 360 8.0 20.9 0.00 0.00 0.00 81 1016.2
20260507063419 16 360 8.0 20.9 0.00 0.00 0.00 81 1016.1
20260507063339 16 360 9.7 20.9 0.00 0.00 0.00 81 1016.2
20260507063219 16 360 9.7 20.9 0.00 0.00 0.00 81 1016.1
20260507063119 16 360 9.7 20.9 0.00 0.00 0.00 81 1016.2
20260507063019 16 360 8.0 19.3 0.00 0.00 0.00 81 1016.1
20260507062924 16 360 6.4 17.7 0.00 0.00 0.00 81 1016.1
20260507062845 16 360 8.0 17.7 0.00 0.00 0.00 81 1016.1
20260507062745 16 360 6.4 17.7 0.00 0.00 0.00 81 1016.0
20260507062624 16 360 6.4 17.7 0.00 0.00 0.00 81 1016.0
20260507062525 16 360 8.0 17.7 0.00 0.00 0.00 81 1015.9
20260507062425 16 360 8.0 17.7 0.00 0.00 0.00 81 1015.9
20260507062325 16 360 9.7 17.7 0.00 0.00 0.00 81 1016.0
20260507062226 16 360 9.7 17.7 0.00 0.00 0.00 81 1016.0
20260507062131 16 360 11.3 17.7 0.00 0.00 0.00 81 1016.0
20260507062052 16 360 11.3 17.7 0.00 0.00 0.00 81 1015.8
20260507061932 16 360 9.7 17.7 0.00 0.00 0.00 81 1015.7
20260507061833 16 360 9.7 17.7 0.00 0.00 0.00 81 1015.6
20260507061735 16 360 9.7 17.7 0.00 0.00 0.00 81 1015.5
20260507061655 16 360 8.0 16.1 0.00 0.00 0.00 81 1015.5
20260507061534 16 360 8.0 16.1 0.00 0.00 0.00 81 1015.6
20260507061418 16 360 8.0 14.5 0.00 0.00 0.00 81 1015.9
20260507061319 16 360 6.4 14.5 0.00 0.00 0.00 81 1015.9
20260507061219 16 360 6.4 14.5 0.00 0.00 0.00 81 1016.0
20260507061119 16 360 6.4 14.5 0.00 0.00 0.00 81 1016.1
20260507061019 16 360 4.8 12.9 0.00 0.00 0.00 81 1016.1
20260507060920 16 360 4.8 12.9 0.00 0.00 0.00 81 1016.2
20260507060825 16 360 4.8 12.9 0.00 0.00 0.00 81 1016.2
20260507060745 16 360 4.8 12.9 0.00 0.00 0.00 81 1016.4
20260507060624 16 360 4.8 12.9 0.00 0.00 0.00 81 1016.3
20260507060525 16 360 4.8 12.9 0.00 0.00 0.00 81 1016.3
20260507060425 16 360 6.4 12.9 0.00 0.00 0.00 81 1016.3
20260507060326 16 360 4.8 12.9 0.00 0.00 0.00 81 1016.3
20260507060227 16 13 4.8 14.5 0.00 0.00 0.00 81 1016.4
20260507060130 16 360 4.8 14.5 0.00 0.00 0.00 81 1016.3
20260507060051 16 360 4.8 14.5 0.00 0.00 0.00 81 1016.3
20260507055930 16 360 4.8 14.5 0.00 0.00 0.00 81 1016.3
20260507055830 16 360 6.4 14.5 0.00 0.00 0.00 81 1016.2
20260507055732 16 360 6.4 14.5 0.00 0.00 0.00 81 1016.1
20260507055649 16 360 6.4 14.5 0.00 0.00 0.00 81 1016.0
20260507055529 16 360 6.4 14.5 0.00 0.00 0.00 80 1016.0
20260507055429 16 360 8.0 14.5 0.00 0.00 0.00 80 1015.9
20260507055334 16 360 8.0 14.5 0.00 0.00 0.00 80 1015.9
20260507055234 16 360 8.0 14.5 0.00 0.00 0.00 80 1015.8
20260507055134 16 360 8.0 14.5 0.00 0.00 0.00 80 1015.8
20260507055034 16 360 6.4 14.5 0.00 0.00 0.00 80 1015.9
20260507054935 16 360 6.4 14.5 0.00 0.00 0.00 80 1015.9
20260507054856 16 360 6.4 14.5 0.00 0.00 0.00 80 1016.0
20260507054720 16 360 6.4 14.5 0.00 0.00 0.00 80 1016.0
20260507054620 16 360 6.4 14.5 0.00 0.00 0.00 80 1016.0
20260507054521 16 360 6.4 14.5 0.00 0.00 0.00 80 1016.0
20260507054421 16 360 6.4 14.5 0.00 0.00 0.00 80 1016.1
20260507054322 16 360 6.4 12.9 0.00 0.00 0.00 80 1016.2
20260507054222 16 360 6.4 12.9 0.00 0.00 0.00 80 1016.2
20260507054123 16 360 6.4 12.9 0.00 0.00 0.00 80 1016.3
20260507054028 16 360 6.4 12.9 0.00 0.00 0.00 80 1016.3
20260507053948 16 360 6.4 16.1 0.00 0.00 0.00 80 1016.4
20260507053828 16 360 6.4 16.1 0.00 0.00 0.00 80 1016.3
20260507053749 16 360 6.4 16.1 0.00 0.00 0.00 80 1016.2
20260507053628 16 360 6.4 16.1 0.00 0.00 0.00 80 1016.2
20260507053530 16 360 4.8 16.1 0.00 0.00 0.00 80 1016.2
20260507053431 16 360 6.4 16.1 0.00 0.00 0.00 80 1016.2
20260507053336 16 360 6.4 16.1 0.00 0.00 0.00 80 1016.2
20260507053255 16 360 6.4 16.1 0.00 0.00 0.00 80 1016.2
20260507053155 16 360 6.4 16.1 0.00 0.00 0.00 80 1016.3
20260507053035 16 360 6.4 16.1 0.00 0.00 0.00 80 1016.4
20260507052935 16 55 6.4 16.1 0.00 0.00 0.00 80 1016.4
20260507052856 16 360 6.4 16.1 0.00 0.00 0.00 80 1016.3
20260507052756 16 360 4.8 14.5 0.00 0.00 0.00 81 1016.3
20260507052634 16 360 6.4 14.5 0.00 0.00 0.00 80 1016.2
20260507052519 16 360 6.4 14.5 0.00 0.00 0.00 81 1016.2
20260507052419 16 360 6.4 14.5 0.00 0.00 0.00 81 1016.2
20260507052318 16 360 6.4 14.5 0.00 0.00 0.00 81 1016.2
20260507052219 16 360 6.4 19.3 0.00 0.00 0.00 80 1016.2
20260507052119 16 360 6.4 19.3 0.00 0.00 0.00 80 1016.1
20260507052019 16 360 8.0 19.3 0.00 0.00 0.00 80 1016.1
20260507051920 16 360 8.0 19.3 0.00 0.00 0.00 80 1016.1
20260507051824 16 360 8.0 19.3 0.00 0.00 0.00 80 1016.1
20260507051724 16 360 8.0 19.3 0.00 0.00 0.00 81 1016.0
20260507051625 16 360 8.0 19.3 0.00 0.00 0.00 81 1016.0
20260507051526 16 360 8.0 19.3 0.00 0.00 0.00 81 1016.0
20260507051428 16 360 8.0 17.7 0.00 0.00 0.00 81 1016.0
20260507051348 16 360 8.0 16.1 0.00 0.00 0.00 81 1016.0
20260507051226 16 360 8.0 16.1 0.00 0.00 0.00 81 1016.0
20260507051132 16 360 8.0 16.1 0.00 0.00 0.00 81 1016.0
20260507051033 16 360 8.0 16.1 0.00 0.00 0.00 81 1016.0
20260507050932 16 360 8.0 17.7 0.00 0.00 0.00 81 1016.0
20260507050833 16 360 8.0 17.7 0.00 0.00 0.00 81 1015.9
20260507050754 16 360 6.4 17.7 0.00 0.00 0.00 81 1015.8
20260507050632 16 360 8.0 17.7 0.00 0.00 0.00 81 1015.8
20260507050533 16 360 8.0 17.7 0.00 0.00 0.00 81 1016.0
20260507050418 16 360 8.0 17.7 0.00 0.00 0.00 81 1016.0
20260507050318 16 360 9.7 17.7 0.00 0.00 0.00 81 1015.9
20260507050218 16 38 9.7 17.7 0.00 0.00 0.00 81 1016.0
20260507050120 16 360 8.0 17.7 0.00 0.00 0.00 81 1015.9
20260507050042 16 360 8.0 16.1 0.00 0.00 0.00 81 1015.9
20260507045917 16 360 8.0 16.1 0.00 0.00 0.00 81 1015.8
20260507045823 16 360 6.4 16.1 0.00 0.00 0.00 81 1015.6
20260507045723 16 360 6.4 16.1 0.00 0.00 0.00 81 1015.8
20260507045623 16 360 8.0 16.1 0.00 0.00 0.00 81 1015.8
20260507045544 16 360 8.0 16.1 0.00 0.00 0.00 81 1015.8
20260507045423 16 360 8.0 16.1 0.00 0.00 0.00 81 1015.8
20260507045324 16 360 8.0 19.3 0.00 0.00 0.00 81 1015.9
20260507045225 16 360 9.7 19.3 0.00 0.00 0.00 81 1015.9
20260507045129 16 360 9.7 19.3 0.00 0.00 0.00 81 1015.9
20260507045049 16 360 9.7 19.3 0.00 0.00 0.00 81 1016.1
20260507044928 16 360 9.7 19.3 0.00 0.00 0.00 81 1016.1
20260507044828 16 360 9.7 19.3 0.00 0.00 0.00 81 1016.1
20260507044730 16 360 8.0 19.3 0.00 0.00 0.00 81 1016.1
20260507044630 16 360 8.0 19.3 0.00 0.00 0.00 81 1016.0
20260507044531 16 360 8.0 19.3 0.00 0.00 0.00 81 1016.1
20260507044436 16 360 9.7 19.3 0.00 0.00 0.00 81 1016.0
20260507044316 16 360 11.3 19.3 0.00 0.00 0.00 81 1016.0
20260507044217 16 360 11.3 19.3 0.00 0.00 0.00 81 1016.0
20260507044117 16 360 11.3 19.3 0.00 0.00 0.00 82 1016.0
20260507044018 16 360 9.7 19.3 0.00 0.00 0.00 82 1016.1
20260507043937 16 360 9.7 17.7 0.00 0.00 0.00 82 1016.0
20260507043818 16 360 9.7 17.7 0.00 0.00 0.00 82 1016.0
20260507043722 16 360 9.7 17.7 0.00 0.00 0.00 82 1015.9
20260507043623 16 360 9.7 17.7 0.00 0.00 0.00 82 1016.0
20260507043523 16 360 9.7 17.7 0.00 0.00 0.00 82 1016.0
20260507043423 16 360 9.7 17.7 0.00 0.00 0.00 82 1016.1
20260507043324 16 360 9.7 17.7 0.00 0.00 0.00 82 1016.0
20260507043223 16 360 9.7 17.7 0.00 0.00 0.00 82 1016.0
20260507043124 16 360 9.7 17.7 0.00 0.00 0.00 82 1015.9
20260507043049 16 360 9.7 17.7 0.00 0.00 0.00 82 1015.9
20260507042927 16 360 8.0 17.7 0.00 0.00 0.00 82 1016.0
20260507042828 16 360 8.0 17.7 0.00 0.00 0.00 82 1016.0
20260507042729 16 360 8.0 17.7 0.00 0.00 0.00 81 1016.1
20260507042629 16 360 8.0 17.7 0.00 0.00 0.00 81 1016.2
20260507042529 16 360 8.0 17.7 0.00 0.00 0.00 81 1016.2
20260507042430 16 360 9.7 17.7 0.00 0.00 0.00 81 1016.2
20260507042334 16 360 9.7 17.7 0.00 0.00 0.00 81 1016.2
20260507042235 16 360 8.0 17.7 0.00 0.00 0.00 82 1016.1
20260507042135 16 360 9.7 17.7 0.00 0.00 0.00 82 1016.1
20260507042035 16 360 8.0 17.7 0.00 0.00 0.00 82 1016.1
20260507041916 16 360 8.0 17.7 0.00 0.00 0.00 81 1016.2
20260507041816 16 360 8.0 20.9 0.00 0.00 0.00 81 1016.2
20260507041721 16 360 8.0 20.9 0.00 0.00 0.00 81 1016.2
20260507041621 16 360 8.0 20.9 0.00 0.00 0.00 81 1016.2
20260507041541 16 360 8.0 20.9 0.00 0.00 0.00 81 1016.1
20260507041421 16 360 6.4 20.9 0.00 0.00 0.00 82 1016.1
20260507041322 16 360 6.4 20.9 0.00 0.00 0.00 82 1016.0
20260507041222 16 360 6.4 20.9 0.00 0.00 0.00 82 1015.9
20260507041143 16 360 6.4 20.9 0.00 0.00 0.00 82 1015.9
20260507041027 16 18 6.4 20.9 0.00 0.00 0.00 82 1015.8
20260507040927 16 360 8.0 20.9 0.00 0.00 0.00 81 1015.8
20260507040827 16 360 11.3 20.9 0.00 0.00 0.00 82 1015.8
20260507040728 16 360 11.3 20.9 0.00 0.00 0.00 82 1015.7
20260507040627 16 360 11.3 20.9 0.00 0.00 0.00 82 1015.6
20260507040528 16 360 11.3 20.9 0.00 0.00 0.00 82 1015.6
20260507040429 16 360 9.7 20.9 0.00 0.00 0.00 82 1015.6
20260507040332 16 360 9.7 17.7 0.00 0.00 0.00 82 1015.7
20260507040233 16 360 9.7 17.7 0.00 0.00 0.00 82 1015.7
20260507040133 16 360 9.7 17.7 0.00 0.00 0.00 82 1015.7
20260507040034 16 360 9.7 19.3 0.00 0.00 0.00 82 1015.7
20260507035934 16 360 8.0 19.3 0.00 0.00 0.00 82 1015.8
20260507035836 16 360 8.0 19.3 0.00 0.00 0.00 82 1015.8
20260507035719 16 360 6.4 19.3 0.00 0.00 0.00 82 1015.9
20260507035619 16 360 6.4 19.3 0.00 0.00 0.00 82 1015.9
20260507035519 16 360 6.4 19.3 0.00 0.00 0.00 81 1016.0
20260507035438 16 360 6.4 19.3 0.00 0.00 0.00 81 1015.8
20260507035338 16 360 8.0 19.3 0.00 0.00 0.00 81 1015.9
20260507035218 16 360 9.7 19.3 0.00 0.00 0.00 81 1015.9
20260507035119 16 360 9.7 19.3 0.00 0.00 0.00 81 1015.8
20260507035019 16 360 11.3 19.3 0.00 0.00 0.00 81 1015.9
20260507034920 16 360 11.3 19.3 0.00 0.00 0.00 81 1015.9
20260507034824 16 360 11.3 19.3 0.00 0.00 0.00 81 1016.0
20260507034724 16 360 9.7 19.3 0.00 0.00 0.00 81 1016.1
20260507034625 16 360 9.7 17.7 0.00 0.00 0.00 81 1016.1
20260507034545 16 360 8.0 17.7 0.00 0.00 0.00 81 1016.0
20260507034424 16 17 9.7 17.7 0.00 0.00 0.00 81 1016.1
20260507034324 16 360 9.7 17.7 0.00 0.00 0.00 81 1016.1
20260507034225 16 360 9.7 17.7 0.00 0.00 0.00 81 1016.2
20260507034128 16 360 9.7 17.7 0.00 0.00 0.00 82 1016.2
20260507034029 16 360 9.7 17.7 0.00 0.00 0.00 82 1016.1
20260507033950 16 360 9.7 17.7 0.00 0.00 0.00 81 1016.0
20260507033849 16 360 9.7 17.7 0.00 0.00 0.00 82 1015.8
20260507033728 16 360 9.7 16.1 0.00 0.00 0.00 81 1015.8
20260507033649 16 360 9.7 16.1 0.00 0.00 0.00 81 1015.8
20260507033529 16 360 9.7 16.1 0.00 0.00 0.00 81 1015.8
20260507033429 16 360 9.7 16.1 0.00 0.00 0.00 81 1015.9
20260507033333 16 360 8.0 14.5 0.00 0.00 0.00 81 1015.9
20260507033234 16 360 8.0 14.5 0.00 0.00 0.00 81 1015.8
20260507033135 16 360 8.0 19.3 0.00 0.00 0.00 81 1015.8
20260507033035 16 360 8.0 19.3 0.00 0.00 0.00 81 1015.8
20260507032917 16 360 8.0 19.3 0.00 0.00 0.00 81 1015.9
20260507032819 16 360 8.0 19.3 0.00 0.00 0.00 81 1015.9
20260507032744 16 360 8.0 19.3 0.00 0.00 0.00 81 1015.9
20260507032622 16 360 8.0 20.9 0.00 0.00 0.00 81 1016.0
20260507032523 16 360 8.0 20.9 0.00 0.00 0.00 81 1015.9
20260507032443 16 360 9.7 20.9 0.00 0.00 0.00 81 1015.9
20260507032323 16 360 9.7 20.9 0.00 0.00 0.00 81 1015.9
20260507032224 16 360 11.3 20.9 0.00 0.00 0.00 81 1015.8
20260507032144 16 360 11.3 20.9 0.00 0.00 0.00 81 1015.7
20260507032022 16 360 11.3 20.9 0.00 0.00 0.00 81 1015.6
20260507031928 16 360 11.3 20.9 0.00 0.00 0.00 82 1015.6
20260507031829 16 360 11.3 20.9 0.00 0.00 0.00 82 1015.6
20260507031728 16 360 11.3 20.9 0.00 0.00 0.00 82 1015.5
20260507031649 16 360 11.3 20.9 0.00 0.00 0.00 82 1015.5
20260507031527 16 360 9.7 19.3 0.00 0.00 0.00 82 1015.5
20260507031429 16 360 8.0 17.7 0.00 0.00 0.00 82 1015.5
20260507031329 16 360 8.0 17.7 0.00 0.00 0.00 82 1015.5
20260507031235 16 360 9.7 17.7 0.00 0.00 0.00 82 1015.5
20260507031116 16 360 9.7 17.7 0.00 0.00 0.00 82 1015.5
20260507031036 16 360 9.7 17.7 0.00 0.00 0.00 82 1015.5
20260507030956 16 360 9.7 17.7 0.00 0.00 0.00 82 1015.6
20260507030816 16 360 8.0 17.7 0.00 0.00 0.00 81 1015.6
20260507030736 16 360 9.7 17.7 0.00 0.00 0.00 82 1015.6
20260507030616 16 360 8.0 17.7 0.00 0.00 0.00 82 1015.8
20260507030521 16 360 9.7 17.7 0.00 0.00 0.00 82 1015.8
20260507030422 16 360 9.7 17.7 0.00 0.00 0.00 82 1015.8
20260507030342 16 360 9.7 17.7 0.00 0.00 0.00 82 1015.8
20260507030218 16 360 9.7 16.1 0.00 0.00 0.00 82 1015.9
20260507030119 16 360 9.7 16.1 0.00 0.00 0.00 82 1015.9
20260507030019 16 360 9.7 16.1 0.00 0.00 0.00 82 1016.0
20260507025919 16 360 9.7 16.1 0.00 0.00 0.00 82 1015.8
20260507025844 16 360 9.7 16.1 0.00 0.00 0.00 82 1015.9
20260507025723 16 360 9.7 16.1 0.00 0.00 0.00 82 1015.9
20260507025623 16 360 8.0 16.1 0.00 0.00 0.00 82 1015.8
20260507025543 16 360 8.0 16.1 0.00 0.00 0.00 82 1015.7
20260507025423 16 360 8.0 17.7 0.00 0.00 0.00 82 1015.6
20260507025324 16 360 6.4 17.7 0.00 0.00 0.00 82 1015.6
20260507025223 16 360 6.4 17.7 0.00 0.00 0.00 82 1015.5
20260507025145 16 360 6.4 20.9 0.00 0.00 0.00 82 1015.6
20260507025028 16 360 8.0 20.9 0.00 0.00 0.00 82 1015.6
20260507024929 16 360 9.7 20.9 0.00 0.00 0.00 82 1015.6
20260507024829 16 360 9.7 20.9 0.00 0.00 0.00 82 1015.6
20260507024730 16 360 11.3 20.9 0.00 0.00 0.00 82 1015.4
20260507024630 16 360 11.3 20.9 0.00 0.00 0.00 81 1015.4
20260507024530 16 360 9.7 20.9 0.00 0.00 0.00 81 1015.3
20260507024431 16 360 9.7 20.9 0.00 0.00 0.00 81 1015.3
20260507024316 16 360 9.7 19.3 0.00 0.00 0.00 81 1015.2
20260507024237 16 360 9.7 17.7 0.00 0.00 0.00 81 1015.2
20260507024135 16 360 9.7 17.7 0.00 0.00 0.00 82 1015.2
20260507024016 16 360 8.0 17.7 0.00 0.00 0.00 81 1015.1
20260507023937 16 360 8.0 17.7 0.00 0.00 0.00 81 1015.2
20260507023816 16 360 8.0 17.7 0.00 0.00 0.00 81 1015.3
20260507023717 16 360 8.0 17.7 0.00 0.00 0.00 81 1015.3
20260507023621 16 360 8.0 19.3 0.00 0.00 0.00 81 1015.3
20260507023522 16 360 8.0 19.3 0.00 0.00 0.00 81 1015.5
20260507023442 17 360 9.7 19.3 0.00 0.00 0.00 81 1015.4
20260507023342 17 360 9.7 19.3 0.00 0.00 0.00 81 1015.4
20260507023221 17 360 9.7 19.3 0.00 0.00 0.00 81 1015.3
20260507023122 17 360 9.7 19.3 0.00 0.00 0.00 81 1015.3
20260507023023 16 360 9.7 19.3 0.00 0.00 0.00 81 1015.2
20260507022943 17 360 9.7 19.3 0.00 0.00 0.00 81 1015.1
20260507022827 17 360 9.7 19.3 0.00 0.00 0.00 81 1015.1
20260507022729 17 360 9.7 22.5 0.00 0.00 0.00 81 1015.1
20260507022627 17 360 11.3 22.5 0.00 0.00 0.00 81 1015.1
20260507022548 17 360 11.3 22.5 0.00 0.00 0.00 81 1015.1
20260507022427 17 360 11.3 22.5 0.00 0.00 0.00 81 1015.1
20260507022328 17 360 12.9 22.5 0.00 0.00 0.00 81 1015.0
20260507022228 17 360 12.9 22.5 0.00 0.00 0.00 81 1015.0
20260507022153 17 360 12.9 22.5 0.00 0.00 0.00 81 1015.0
20260507022033 17 360 12.9 22.5 0.00 0.00 0.00 81 1015.1
20260507021933 17 360 11.3 20.9 0.00 0.00 0.00 81 1015.1
20260507021854 17 360 11.3 19.3 0.00 0.00 0.00 81 1015.1
20260507021732 17 360 11.3 19.3 0.00 0.00 0.00 81 1015.1
20260507021653 17 360 11.3 17.7 0.00 0.00 0.00 81 1015.0
20260507021533 17 360 11.3 17.7 0.00 0.00 0.00 81 1015.0
20260507021417 17 360 11.3 17.7 0.00 0.00 0.00 81 1014.9
20260507021317 17 360 9.7 17.7 0.00 0.00 0.00 81 1014.9
20260507021239 17 360 9.7 17.7 0.00 0.00 0.00 81 1014.7
20260507021138 17 360 9.7 17.7 0.00 0.00 0.00 81 1014.8
20260507021017 17 360 9.7 17.7 0.00 0.00 0.00 81 1014.8
20260507020918 17 360 9.7 17.7 0.00 0.00 0.00 81 1014.8
20260507020818 17 360 11.3 17.7 0.00 0.00 0.00 81 1014.8
20260507020740 17 360 11.3 17.7 0.00 0.00 0.00 81 1014.9
20260507020638 17 360 9.7 17.7 0.00 0.00 0.00 81 1014.8
20260507020522 17 360 8.0 17.7 0.00 0.00 0.00 81 1014.8
20260507020442 17 360 8.0 17.7 0.00 0.00 0.00 81 1014.8
20260507020322 17 360 8.0 17.7 0.00 0.00 0.00 81 1014.8
20260507020222 17 360 8.0 17.7 0.00 0.00 0.00 81 1014.9
20260507020142 17 360 9.7 17.7 0.00 0.00 0.00 81 1014.8
20260507020022 17 360 9.7 17.7 0.00 0.00 0.00 81 1014.7
20260507015922 17 360 11.3 17.7 0.00 0.00 0.00 81 1014.7
20260507015827 17 360 11.3 17.7 0.00 0.00 0.00 80 1014.7
20260507015729 17 360 9.7 17.7 0.00 0.00 0.00 80 1014.7
20260507015649 17 360 9.7 17.7 0.00 0.00 0.00 80 1014.7
20260507015548 17 360 8.0 17.7 0.00 0.00 0.00 80 1014.7
20260507015427 17 360 6.4 17.7 0.00 0.00 0.00 80 1014.8
20260507015326 17 360 6.4 14.5 0.00 0.00 0.00 80 1014.8
20260507015228 17 360 6.4 16.1 0.00 0.00 0.00 80 1014.7
20260507015127 17 360 4.8 16.1 0.00 0.00 0.00 80 1014.6
20260507015032 17 360 4.8 16.1 0.00 0.00 0.00 80 1014.6
20260507014933 17 360 6.4 16.1 0.00 0.00 0.00 80 1014.6
20260507014832 17 360 6.4 16.1 0.00 0.00 0.00 80 1014.6
20260507014753 17 360 6.4 16.1 0.00 0.00 0.00 80 1014.6
20260507014653 17 360 8.0 16.1 0.00 0.00 0.00 80 1014.7
20260507014531 17 360 8.0 16.1 0.00 0.00 0.00 80 1014.6
20260507014453 17 360 8.0 16.1 0.00 0.00 0.00 80 1014.6
20260507014331 17 360 8.0 16.1 0.00 0.00 0.00 80 1014.6
20260507014252 17 360 8.0 16.1 0.00 0.00 0.00 80 1014.6
20260507014136 17 360 8.0 16.1 0.00 0.00 0.00 80 1014.6
20260507014056 17 360 8.0 16.1 0.00 0.00 0.00 80 1014.5
20260507013915 17 360 9.7 16.1 0.00 0.00 0.00 80 1014.5
20260507013835 17 360 9.7 16.1 0.00 0.00 0.00 80 1014.5
20260507013716 17 360 9.7 16.1 0.00 0.00 0.00 80 1014.4
20260507013616 17 360 11.3 16.1 0.00 0.00 0.00 80 1014.3
20260507013516 17 360 9.7 17.7 0.00 0.00 0.00 80 1014.2
20260507013421 17 360 9.7 19.3 0.00 0.00 0.00 80 1014.2
20260507013322 17 360 8.0 19.3 0.00 0.00 0.00 80 1014.2
20260507013223 17 360 8.0 19.3 0.00 0.00 0.00 80 1014.1
20260507013123 17 360 8.0 19.3 0.00 0.00 0.00 80 1014.2
20260507013024 17 360 8.0 19.3 0.00 0.00 0.00 80 1014.2
20260507012924 17 360 9.7 19.3 0.00 0.00 0.00 80 1014.2
20260507012844 17 360 9.7 19.3 0.00 0.00 0.00 80 1014.3
20260507012730 17 360 11.3 19.3 0.00 0.00 0.00 80 1014.3
20260507012650 17 360 11.3 19.3 0.00 0.00 0.00 80 1014.3
20260507012530 17 360 11.3 19.3 0.00 0.00 0.00 80 1014.3
20260507012450 17 360 11.3 19.3 0.00 0.00 0.00 80 1014.3
20260507012328 17 360 9.7 19.3 0.00 0.00 0.00 80 1014.3
20260507012226 17 360 9.7 17.7 0.00 0.00 0.00 80 1014.2
20260507012147 17 360 9.7 22.5 0.00 0.00 0.00 80 1014.2
20260507012026 17 360 9.7 22.5 0.00 0.00 0.00 80 1014.0
20260507011927 17 360 9.7 22.5 0.00 0.00 0.00 80 1014.0
20260507011832 17 360 9.7 22.5 0.00 0.00 0.00 80 1014.1
20260507011753 17 360 9.7 22.5 0.00 0.00 0.00 80 1014.1
20260507011634 17 360 9.7 22.5 0.00 0.00 0.00 80 1014.1
20260507011535 17 360 9.7 22.5 0.00 0.00 0.00 80 1014.1
20260507011415 17 360 11.3 22.5 0.00 0.00 0.00 80 1014.1
20260507011336 17 360 11.3 22.5 0.00 0.00 0.00 80 1014.1
20260507011119 17 360 12.9 20.9 0.00 0.00 0.00 80 1014.1
20260507011020 17 360 11.3 20.9 0.00 0.00 0.00 80 1014.2
20260507010920 17 360 11.3 22.5 0.00 0.00 0.00 80 1014.2
20260507010820 17 360 11.3 22.5 0.00 0.00 0.00 80 1014.2
20260507010721 17 360 12.9 22.5 0.00 0.00 0.00 80 1014.3
20260507010620 17 360 12.9 24.1 0.00 0.00 0.00 80 1014.0
20260507010521 17 360 12.9 24.1 0.00 0.00 0.00 80 1013.9
20260507010424 17 360 12.9 24.1 0.00 0.00 0.00 80 1013.8
20260507010325 17 360 12.9 24.1 0.00 0.00 0.00 80 1013.7
20260507010246 17 360 12.9 24.1 0.00 0.00 0.00 80 1013.8
20260507010125 17 360 12.9 24.1 0.00 0.00 0.00 80 1013.9
20260507010026 17 31 12.9 24.1 0.00 0.00 0.00 80 1013.9
20260507005925 17 360 11.3 24.1 0.00 0.00 0.00 80 1013.9
20260507005826 17 360 12.9 24.1 0.00 0.00 0.00 80 1014.0
20260507005731 17 360 12.9 24.1 0.00 0.00 0.00 80 1014.0
20260507005631 17 360 11.3 19.3 0.00 0.00 0.00 80 1014.0
20260507005531 17 360 11.3 19.3 0.00 0.00 0.00 80 1014.0
20260507005431 17 360 11.3 19.3 0.00 0.00 0.00 80 1014.1
20260507005332 17 360 9.7 19.3 0.00 0.00 0.00 80 1014.1
20260507005233 17 360 9.7 19.3 0.00 0.00 0.00 80 1014.1
20260507005117 17 360 9.7 19.3 0.00 0.00 0.00 80 1013.9
20260507005037 17 360 9.7 17.7 0.00 0.00 0.00 80 1013.8
20260507004936 17 360 9.7 17.7 0.00 0.00 0.00 80 1013.8
20260507004856 17 360 11.3 19.3 0.00 0.00 0.00 80 1013.9
20260507004735 17 360 11.3 19.3 0.00 0.00 0.00 80 1013.9
20260507004616 17 360 9.7 22.5 0.00 0.00 0.00 80 1013.8
20260507004516 17 360 9.7 22.5 0.00 0.00 0.00 80 1013.9
20260507004421 17 360 9.7 22.5 0.00 0.00 0.00 80 1013.8
20260507004322 17 360 11.3 22.5 0.00 0.00 0.00 80 1013.8
20260507004221 17 360 11.3 22.5 0.00 0.00 0.00 80 1013.8
20260507004122 17 360 11.3 22.5 0.00 0.00 0.00 80 1013.9
20260507004025 17 360 11.3 22.5 0.00 0.00 0.00 80 1013.9
20260507003945 17 360 11.3 22.5 0.00 0.00 0.00 80 1013.8
20260507003824 17 360 11.3 22.5 0.00 0.00 0.00 80 1013.7
20260507003745 17 360 9.7 22.5 0.00 0.00 0.00 80 1013.7
20260507003629 17 360 11.3 22.5 0.00 0.00 0.00 80 1013.7
20260507003528 17 360 11.3 22.5 0.00 0.00 0.00 79 1013.4
20260507003449 17 360 11.3 27.4 0.00 0.00 0.00 79 1013.3
20260507003328 17 360 12.9 27.4 0.00 0.00 0.00 79 1013.3
20260507003249 17 360 12.9 27.4 0.00 0.00 0.00 79 1013.3
20260507003126 17 360 12.9 27.4 0.00 0.00 0.00 79 1013.5
20260507003028 17 360 12.9 27.4 0.00 0.00 0.00 79 1013.5
20260507002928 17 360 14.5 27.4 0.00 0.00 0.00 79 1013.7
20260507002828 17 360 14.5 27.4 0.00 0.00 0.00 79 1013.7
20260507002733 17 360 12.9 27.4 0.00 0.00 0.00 79 1013.8
20260507002633 17 360 11.3 27.4 0.00 0.00 0.00 79 1013.8
20260507002532 17 360 11.3 25.7 0.00 0.00 0.00 79 1013.8
20260507002433 17 360 11.3 25.7 0.00 0.00 0.00 79 1013.6
20260507002333 17 360 11.3 25.7 0.00 0.00 0.00 79 1013.7
20260507002234 17 360 11.3 25.7 0.00 0.00 0.00 79 1013.6
20260507002118 17 360 12.9 25.7 0.00 0.00 0.00 79 1013.5
20260507002018 17 360 12.9 25.7 0.00 0.00 0.00 79 1013.4
20260507001919 17 360 11.3 25.7 0.00 0.00 0.00 79 1013.4
20260507001819 17 360 11.3 25.7 0.00 0.00 0.00 79 1013.5
20260507001719 17 360 12.9 25.7 0.00 0.00 0.00 79 1013.5
20260507001620 17 360 14.5 25.7 0.00 0.00 0.00 79 1013.7
20260507001541 17 360 14.5 25.7 0.00 0.00 0.00 79 1013.7
20260507001424 17 360 16.1 25.7 0.00 0.00 0.00 79 1013.7
20260507001324 17 360 16.1 25.7 0.00 0.00 0.00 79 1013.7
20260507001224 17 360 16.1 25.7 0.00 0.00 0.00 79 1013.6
20260507001124 17 360 16.1 25.7 0.00 0.00 0.00 79 1013.5
20260507001044 17 360 12.9 25.7 0.00 0.00 0.00 79 1013.5
20260507000923 17 360 12.9 24.1 0.00 0.00 0.00 80 1013.5
20260507000825 17 360 12.9 24.1 0.00 0.00 0.00 80 1013.5
20260507000728 17 360 12.9 24.1 0.00 0.00 0.00 80 1013.5
20260507000629 17 360 12.9 25.7 0.00 0.00 0.00 80 1013.4
20260507000549 17 360 14.5 27.4 0.00 0.00 0.00 80 1013.4
20260507000429 17 360 14.5 27.4 0.00 0.00 0.00 79 1013.3
20260507000330 17 360 14.5 27.4 0.00 0.00 0.00 79 1013.3
20260507000230 17 360 16.1 27.4 0.00 0.00 0.00 79 1013.4
20260507000129 17 360 17.7 27.4 0.00 0.00 0.00 79 1013.4
20260507000050 17 360 16.1 27.4 0.00 0.00 0.00 79 1013.5
20260506235934 17 360 16.1 27.4 0.00 0.00 0.00 79 1013.7
20260506235834 17 360 16.1 27.4 0.00 0.00 0.00 79 1013.7
20260506235736 17 360 16.1 27.4 0.00 0.00 0.00 79 1013.5
20260506235616 17 360 14.5 27.4 0.00 0.00 0.00 79 1013.7
20260506235516 17 360 14.5 27.4 0.00 0.00 0.00 79 1013.6
20260506235437 17 360 12.9 27.4 0.00 0.00 0.00 79 1013.5
20260506235336 17 360 12.9 27.4 0.00 0.00 0.00 79 1013.5
20260506235220 17 360 12.9 27.4 0.00 0.00 0.00 79 1013.4
20260506235120 17 360 12.9 27.4 0.00 0.00 0.00 79 1013.4
20260506235021 17 360 12.9 27.4 0.00 0.00 0.00 79 1013.5
20260506234921 17 360 14.5 27.4 0.00 0.00 0.00 79 1013.5
20260506234822 17 360 14.5 27.4 0.00 0.00 0.00 79 1013.4
20260506234723 17 360 16.1 27.4 0.00 0.00 0.00 79 1013.5
20260506234643 17 360 16.1 27.4 0.00 0.00 0.00 79 1013.4
20260506234542 17 360 14.5 25.7 0.00 0.00 0.00 79 1013.3
20260506234426 17 360 14.5 25.7 0.00 0.00 0.00 79 1013.4
20260506234326 17 360 14.5 25.7 0.00 0.00 0.00 79 1013.5
20260506234227 17 360 14.5 25.7 0.00 0.00 0.00 79 1013.5
20260506234128 17 360 14.5 25.7 0.00 0.00 0.00 79 1013.5
20260506234048 17 360 14.5 25.7 0.00 0.00 0.00 79 1013.5
20260506233927 17 360 14.5 25.7 0.00 0.00 0.00 79 1013.5
20260506233827 17 315 12.9 25.7 0.00 0.00 0.00 79 1013.5
20260506233731 17 360 11.3 25.7 0.00 0.00 0.00 79 1013.5
20260506233632 17 360 11.3 25.7 0.00 0.00 0.00 79 1013.4
20260506233533 17 360 12.9 25.7 0.00 0.00 0.00 79 1013.5
20260506233454 17 360 11.3 25.7 0.00 0.00 0.00 80 1013.4
20260506233334 17 360 11.3 25.7 0.00 0.00 0.00 79 1013.3
20260506233235 17 360 12.9 25.7 0.00 0.00 0.00 79 1013.3
20260506233135 17 360 12.9 25.7 0.00 0.00 0.00 80 1013.3
20260506233020 17 360 11.3 25.7 0.00 0.00 0.00 79 1013.2
20260506232920 17 360 12.9 25.7 0.00 0.00 0.00 79 1013.1
20260506232822 17 360 14.5 25.7 0.00 0.00 0.00 79 1013.1
20260506232721 17 360 14.5 27.4 0.00 0.00 0.00 79 1013.2
20260506232642 17 360 14.5 27.4 0.00 0.00 0.00 79 1013.2
20260506232521 17 360 14.5 27.4 0.00 0.00 0.00 79 1013.2
20260506232443 17 360 16.1 27.4 0.00 0.00 0.00 79 1013.2
20260506232320 17 360 14.5 27.4 0.00 0.00 0.00 79 1013.2
20260506232225 17 360 14.5 27.4 0.00 0.00 0.00 79 1013.2
20260506232126 17 360 14.5 27.4 0.00 0.00 0.00 79 1013.3
20260506232047 17 360 16.1 27.4 0.00 0.00 0.00 79 1013.2
20260506231947 17 360 16.1 24.1 0.00 0.00 0.00 79 1013.2
20260506231826 17 360 14.5 24.1 0.00 0.00 0.00 79 1013.3
20260506231726 17 360 16.1 24.1 0.00 0.00 0.00 79 1013.2
20260506231646 17 360 16.1 24.1 0.00 0.00 0.00 79 1013.2
20260506231526 17 360 16.1 24.1 0.00 0.00 0.00 79 1013.2
20260506231450 17 360 14.5 24.1 0.00 0.00 0.00 79 1013.2
20260506231330 17 360 14.5 24.1 0.00 0.00 0.00 79 1013.2
20260506231229 17 360 12.9 24.1 0.00 0.00 0.00 79 1013.2
20260506231130 17 360 12.9 27.4 0.00 0.00 0.00 79 1013.3
20260506231030 17 360 11.3 27.4 0.00 0.00 0.00 79 1013.2
20260506230931 17 360 12.9 27.4 0.00 0.00 0.00 79 1013.2
20260506230832 17 360 14.5 27.4 0.00 0.00 0.00 79 1013.2
20260506230756 17 360 14.5 27.4 0.00 0.00 0.00 78 1013.2
20260506230635 17 360 14.5 27.4 0.00 0.00 0.00 78 1013.2
20260506230516 17 360 14.5 27.4 0.00 0.00 0.00 78 1013.3
20260506230417 17 360 14.5 27.4 0.00 0.00 0.00 78 1013.3
20260506230337 17 360 12.9 27.4 0.00 0.00 0.00 78 1013.3
20260506230237 17 360 12.9 27.4 0.00 0.00 0.00 79 1013.3
20260506230138 17 360 12.9 27.4 0.00 0.00 0.00 79 1013.3
20260506230017 17 360 12.9 27.4 0.00 0.00 0.00 79 1013.3
20260506225921 17 360 12.9 27.4 0.00 0.00 0.00 79 1013.2
20260506225822 17 360 14.5 27.4 0.00 0.00 0.00 79 1013.3
20260506225721 17 360 14.5 27.4 0.00 0.00 0.00 79 1013.3
20260506225643 17 360 16.1 27.4 0.00 0.00 0.00 79 1013.3
20260506225522 17 360 17.7 27.4 0.00 0.00 0.00 78 1013.3
20260506225423 17 360 17.7 25.7 0.00 0.00 0.00 78 1013.4
20260506225323 17 360 16.1 25.7 0.00 0.00 0.00 78 1013.4
20260506225244 17 360 16.1 25.7 0.00 0.00 0.00 78 1013.3
20260506225127 17 360 14.5 25.7 0.00 0.00 0.00 78 1013.3
20260506225028 17 360 14.5 25.7 0.00 0.00 0.00 78 1013.4
20260506224928 17 360 14.5 25.7 0.00 0.00 0.00 78 1013.3
20260506224847 17 360 16.1 25.7 0.00 0.00 0.00 78 1013.2
20260506224748 17 360 16.1 27.4 0.00 0.00 0.00 78 1013.2
20260506224627 17 360 16.1 27.4 0.00 0.00 0.00 78 1013.2
20260506224547 17 360 14.5 27.4 0.00 0.00 0.00 78 1013.2
20260506224427 17 360 12.9 27.4 0.00 0.00 0.00 78 1013.2
20260506224332 17 360 14.5 27.4 0.00 0.00 0.00 78 1013.1
20260506224252 17 360 16.1 27.4 0.00 0.00 0.00 78 1013.2
20260506224131 17 360 17.7 27.4 0.00 0.00 0.00 78 1013.2
20260506224052 17 360 17.7 27.4 0.00 0.00 0.00 78 1013.2
20260506223952 17 360 17.7 30.6 0.00 0.00 0.00 78 1013.2
20260506223831 17 360 17.7 30.6 0.00 0.00 0.00 78 1013.1
20260506223731 17 360 17.7 30.6 0.00 0.00 0.00 78 1013.1
20260506223616 17 360 17.7 30.6 0.00 0.00 0.00 78 1013.2
20260506223517 17 360 17.7 30.6 0.00 0.00 0.00 78 1013.2
20260506223417 17 360 17.7 30.6 0.00 0.00 0.00 78 1013.1
20260506223318 17 360 17.7 30.6 0.00 0.00 0.00 78 1013.1
20260506223217 17 360 17.7 30.6 0.00 0.00 0.00 77 1013.2
20260506223118 17 360 16.1 30.6 0.00 0.00 0.00 77 1013.1
20260506223019 17 360 17.7 30.6 0.00 0.00 0.00 77 1013.1
20260506222923 17 360 17.7 30.6 0.00 0.00 0.00 77 1013.2
20260506222823 17 360 19.3 30.6 0.00 0.00 0.00 77 1013.1
20260506222723 17 360 20.9 30.6 0.00 0.00 0.00 77 1013.0
20260506222623 17 360 17.7 30.6 0.00 0.00 0.00 77 1013.0
20260506222524 17 360 17.7 30.6 0.00 0.00 0.00 77 1013.0
20260506222424 17 360 17.7 27.4 0.00 0.00 0.00 78 1013.0
20260506222328 17 360 19.3 27.4 0.00 0.00 0.00 77 1013.0
20260506222229 17 360 20.9 27.4 0.00 0.00 0.00 77 1013.0
20260506222129 17 360 19.3 27.4 0.00 0.00 0.00 77 1013.0
20260506222030 17 360 19.3 27.4 0.00 0.00 0.00 77 1012.9
20260506221931 17 360 19.3 25.7 0.00 0.00 0.00 77 1012.9
20260506221832 17 360 17.7 25.7 0.00 0.00 0.00 77 1012.8
20260506221732 17 360 17.7 25.7 0.00 0.00 0.00 77 1012.9
20260506221616 17 360 17.7 25.7 0.00 0.00 0.00 77 1012.9
20260506221517 17 360 16.1 25.7 0.00 0.00 0.00 77 1013.0
20260506221418 17 360 16.1 25.7 0.00 0.00 0.00 77 1013.1
20260506221317 17 360 14.5 24.1 0.00 0.00 0.00 77 1013.0
20260506221217 18 360 14.5 25.7 0.00 0.00 0.00 76 1013.1
20260506221118 18 360 14.5 25.7 0.00 0.00 0.00 76 1013.1
20260506221022 18 360 14.5 25.7 0.00 0.00 0.00 76 1013.1
20260506220922 18 360 16.1 25.7 0.00 0.00 0.00 76 1013.2
20260506220822 18 360 16.1 25.7 0.00 0.00 0.00 76 1013.2
20260506220724 18 360 16.1 25.7 0.00 0.00 0.00 77 1013.1
20260506220624 18 360 16.1 25.7 0.00 0.00 0.00 77 1013.0
20260506220544 18 360 17.7 29.0 0.00 0.00 0.00 76 1013.1
20260506220423 18 360 16.1 29.0 0.00 0.00 0.00 76 1013.1
20260506220328 18 360 16.1 29.0 0.00 0.00 0.00 76 1013.1
20260506220228 18 360 14.5 29.0 0.00 0.00 0.00 77 1013.1
20260506220128 18 360 14.5 29.0 0.00 0.00 0.00 77 1013.1
20260506220029 18 360 16.1 29.0 0.00 0.00 0.00 77 1013.1
20260506215930 18 360 17.7 29.0 0.00 0.00 0.00 77 1013.1
20260506215849 18 360 19.3 29.0 0.00 0.00 0.00 76 1013.1
20260506215730 18 360 19.3 29.0 0.00 0.00 0.00 76 1013.2
20260506215649 18 360 17.7 29.0 0.00 0.00 0.00 76 1013.2
20260506215533 18 360 19.3 29.0 0.00 0.00 0.00 76 1013.2
20260506215433 18 360 17.7 29.0 0.00 0.00 0.00 76 1013.3
20260506215333 18 360 16.1 27.4 0.00 0.00 0.00 76 1013.2
20260506215254 18 360 14.5 27.4 0.00 0.00 0.00 76 1013.2
20260506215133 18 360 14.5 27.4 0.00 0.00 0.00 76 1013.1
20260506215054 18 360 12.9 27.4 0.00 0.00 0.00 76 1013.1
20260506214934 18 360 14.5 27.4 0.00 0.00 0.00 76 1013.0
20260506214818 18 360 16.1 27.4 0.00 0.00 0.00 76 1013.0
20260506214718 18 360 16.1 27.4 0.00 0.00 0.00 76 1013.0
20260506214619 18 360 16.1 29.0 0.00 0.00 0.00 76 1013.0
20260506214519 18 360 16.1 29.0 0.00 0.00 0.00 76 1013.0
20260506214420 18 360 14.5 29.0 0.00 0.00 0.00 76 1012.9
20260506214321 18 360 16.1 29.0 0.00 0.00 0.00 75 1013.0
20260506214242 18 360 14.5 35.4 0.00 0.00 0.00 75 1012.9
20260506214147 18 360 16.1 35.4 0.00 0.00 0.00 76 1012.9
20260506214026 18 360 17.7 35.4 0.00 0.00 0.00 76 1013.0
20260506213926 18 360 17.7 35.4 0.00 0.00 0.00 75 1013.0
20260506213827 18 360 19.3 35.4 0.00 0.00 0.00 75 1013.0
20260506213728 18 360 19.3 35.4 0.00 0.00 0.00 76 1013.0
20260506213649 18 360 20.9 35.4 0.00 0.00 0.00 76 1013.0
20260506213528 18 360 20.9 35.4 0.00 0.00 0.00 76 1012.9
20260506213433 18 360 20.9 35.4 0.00 0.00 0.00 75 1013.0
20260506213332 18 360 20.9 30.6 0.00 0.00 0.00 75 1013.0
20260506213232 18 360 19.3 29.0 0.00 0.00 0.00 75 1013.0
20260506213134 18 360 19.3 29.0 0.00 0.00 0.00 75 1012.9
20260506213035 18 360 17.7 33.8 0.00 0.00 0.00 75 1012.9
20260506212935 18 360 17.7 33.8 0.00 0.00 0.00 74 1012.9
20260506212817 19 360 17.7 33.8 0.00 0.00 0.00 74 1012.8
20260506212720 19 360 17.7 33.8 0.00 0.00 0.00 74 1012.8
20260506212621 19 360 19.3 33.8 0.00 0.00 0.00 75 1012.7
20260506212541 19 360 20.9 33.8 0.00 0.00 0.00 74 1012.7
20260506212422 19 360 22.5 33.8 0.00 0.00 0.00 74 1012.8
20260506212341 19 360 22.5 33.8 0.00 0.00 0.00 74 1012.8
20260506212221 19 360 20.9 33.8 0.00 0.00 0.00 74 1012.7
20260506212143 19 360 17.7 33.8 0.00 0.00 0.00 74 1012.8
20260506212042 19 360 16.1 33.8 0.00 0.00 0.00 73 1012.8
20260506211926 19 360 16.1 30.6 0.00 0.00 0.00 73 1012.8
20260506211827 20 360 16.1 30.6 0.00 0.00 0.00 73 1012.9
20260506211728 20 360 16.1 30.6 0.00 0.00 0.00 72 1012.8
20260506211628 20 360 16.1 30.6 0.00 0.00 0.00 72 1012.9
20260506211549 20 360 16.1 30.6 0.00 0.00 0.00 73 1012.8
20260506211429 20 360 16.1 32.2 0.00 0.00 0.00 73 1012.8
20260506211329 20 360 17.7 32.2 0.00 0.00 0.00 73 1012.8
20260506211234 20 360 19.3 32.2 0.00 0.00 0.00 72 1012.7
20260506211133 20 360 17.7 32.2 0.00 0.00 0.00 73 1012.8
20260506211034 20 360 17.7 32.2 0.00 0.00 0.00 73 1012.8
20260506210935 20 360 17.7 33.8 0.00 0.00 0.00 73 1012.8
20260506210816 20 360 17.7 33.8 0.00 0.00 0.00 73 1012.7
20260506210717 20 360 20.9 33.8 0.00 0.00 0.00 72 1012.6
20260506210622 20 360 19.3 33.8 0.00 0.00 0.00 72 1012.7
20260506210523 20 360 17.7 33.8 0.00 0.00 0.00 72 1012.7
20260506210443 20 360 16.1 33.8 0.00 0.00 0.00 72 1012.7
20260506210404 21 360 14.5 33.8 0.00 0.00 0.00 73 1012.7
20260506210216 20 360 17.7 33.8 0.00 0.00 0.00 72 1012.8
20260506210117 20 360 19.3 33.8 0.00 0.00 0.00 72 1012.8
20260506210017 20 360 19.3 33.8 0.00 0.00 0.00 72 1012.9
20260506205918 21 360 20.9 33.8 0.00 0.00 0.00 71 1012.9
20260506205824 21 360 19.3 33.8 0.00 0.00 0.00 72 1012.8
20260506205744 21 360 19.3 30.6 0.00 0.00 0.00 72 1012.8
20260506205624 21 360 19.3 30.6 0.00 0.00 0.00 71 1012.9
20260506205524 21 360 17.7 30.6 0.00 0.00 0.00 72 1012.8
20260506205425 21 360 19.3 35.4 0.00 0.00 0.00 72 1012.9
20260506205326 21 360 19.3 35.4 0.00 0.00 0.00 72 1012.9
20260506205224 21 360 17.7 35.4 0.00 0.00 0.00 72 1012.9
20260506205128 21 360 17.7 35.4 0.00 0.00 0.00 73 1012.9
20260506205028 21 360 17.7 35.4 0.00 0.00 0.00 73 1012.8
20260506204929 21 360 19.3 35.4 0.00 0.00 0.00 72 1012.8
20260506204830 21 360 17.7 35.4 0.00 0.00 0.00 72 1012.8
20260506204750 21 360 17.7 33.8 0.00 0.00 0.00 72 1012.8
20260506204650 21 360 17.7 33.8 0.00 0.00 0.00 72 1012.8
20260506204528 21 360 17.7 32.2 0.00 0.00 0.00 72 1012.8
20260506204449 21 360 16.1 32.2 0.00 0.00 0.00 72 1012.8
20260506204332 21 360 17.7 32.2 0.00 0.00 0.00 71 1012.9
20260506204233 22 360 17.7 32.2 0.00 0.00 0.00 71 1013.0
20260506204135 22 360 16.1 32.2 0.00 0.00 0.00 72 1012.9
20260506204034 22 360 14.5 32.2 0.00 0.00 0.00 71 1013.0
20260506203933 22 360 16.1 32.2 0.00 0.00 0.00 72 1013.1
20260506203835 22 360 16.1 32.2 0.00 0.00 0.00 72 1013.1
20260506203735 22 360 14.5 32.2 0.00 0.00 0.00 73 1013.0
20260506203619 21 360 16.1 32.2 0.00 0.00 0.00 72 1013.0
20260506203519 22 360 16.1 27.4 0.00 0.00 0.00 72 1013.1
20260506203420 22 360 17.7 27.4 0.00 0.00 0.00 72 1013.1
20260506203340 22 360 17.7 27.4 0.00 0.00 0.00 72 1013.1
20260506203221 22 360 16.1 27.4 0.00 0.00 0.00 72 1013.1
20260506203122 22 360 14.5 27.4 0.00 0.00 0.00 72 1013.1
20260506203024 22 360 14.5 30.6 0.00 0.00 0.00 73 1013.1
20260506202928 22 360 14.5 30.6 0.00 0.00 0.00 73 1013.1
20260506202829 22 360 16.1 30.6 0.00 0.00 0.00 72 1013.1
20260506202750 22 49 16.1 30.6 0.00 0.00 0.00 72 1013.1
20260506202628 22 360 16.1 30.6 0.00 0.00 0.00 72 1013.1
20260506202529 22 360 16.1 30.6 0.00 0.00 0.00 74 1013.2
20260506202430 22 360 16.1 30.6 0.00 0.00 0.00 74 1013.1
20260506202350 22 360 16.1 30.6 0.00 0.00 0.00 73 1013.2
20260506202250 22 360 16.1 29.0 0.00 0.00 0.00 73 1013.1
20260506202132 22 360 17.7 29.0 0.00 0.00 0.00 72 1013.1
20260506202033 22 360 16.1 27.4 0.00 0.00 0.00 72 1013.0
20260506201934 22 360 16.1 27.4 0.00 0.00 0.00 73 1013.0
20260506201835 22 360 16.1 27.4 0.00 0.00 0.00 74 1013.0
20260506201735 22 360 16.1 27.4 0.00 0.00 0.00 74 1013.0
20260506201635 22 360 16.1 27.4 0.00 0.00 0.00 74 1013.0
20260506201540 22 360 16.1 27.4 0.00 0.00 0.00 74 1012.9
20260506201418 21 360 16.1 27.4 0.00 0.00 0.00 74 1012.9
20260506201318 22 360 17.7 33.8 0.00 0.00 0.00 74 1013.0
20260506201218 22 360 19.3 33.8 0.00 0.00 0.00 74 1013.0
20260506201118 22 360 19.3 33.8 0.00 0.00 0.00 73 1013.0
20260506201019 22 360 17.7 33.8 0.00 0.00 0.00 73 1012.9
20260506200940 22 360 16.1 33.8 0.00 0.00 0.00 73 1012.9
20260506200819 22 360 16.1 33.8 0.00 0.00 0.00 73 1012.9
20260506200724 22 360 16.1 33.8 0.00 0.00 0.00 74 1012.8
20260506200625 22 360 16.1 33.8 0.00 0.00 0.00 73 1012.8
20260506200546 22 360 17.7 35.4 0.00 0.00 0.00 73 1012.8
20260506200424 22 360 16.1 35.4 0.00 0.00 0.00 73 1012.7
20260506200345 22 360 17.7 35.4 0.00 0.00 0.00 73 1012.7
20260506200224 22 360 16.1 35.4 0.00 0.00 0.00 73 1012.6
20260506200144 22 360 17.7 35.4 0.00 0.00 0.00 73 1012.7
20260506200024 22 360 20.9 35.4 0.00 0.00 0.00 73 1012.8
20260506195925 22 360 20.9 35.4 0.00 0.00 0.00 73 1012.7
20260506195828 22 360 22.5 35.4 0.00 0.00 0.00 72 1012.7
20260506195731 22 360 22.5 35.4 0.00 0.00 0.00 72 1012.7
20260506195630 22 360 20.9 35.4 0.00 0.00 0.00 72 1012.6
20260506195551 22 360 19.3 33.8 0.00 0.00 0.00 73 1012.6
20260506195431 22 360 17.7 33.8 0.00 0.00 0.00 73 1012.7
20260506195331 22 360 19.3 35.4 0.00 0.00 0.00 73 1012.6
20260506195231 22 360 19.3 35.4 0.00 0.00 0.00 73 1012.6
20260506195135 22 360 19.3 35.4 0.00 0.00 0.00 73 1012.5
20260506195036 22 360 19.3 35.4 0.00 0.00 0.00 72 1012.5
20260506194930 23 360 17.7 35.4 0.00 0.00 0.00 73 1012.5
20260506194830 23 360 17.7 35.4 0.00 0.00 0.00 74 1012.4
20260506194731 23 360 19.3 35.4 0.00 0.00 0.00 74 1012.4
20260506194630 22 360 20.9 35.4 0.00 0.00 0.00 74 1012.4
20260506194551 22 360 20.9 35.4 0.00 0.00 0.00 74 1012.4
20260506194434 22 360 22.5 35.4 0.00 0.00 0.00 74 1012.4
20260506194334 22 360 20.9 33.8 0.00 0.00 0.00 74 1012.4
20260506194217 22 360 20.9 33.8 0.00 0.00 0.00 74 1012.4
20260506194117 22 360 19.3 33.8 0.00 0.00 0.00 74 1012.3
20260506194018 22 360 19.3 33.8 0.00 0.00 0.00 74 1012.3
20260506193918 22 360 19.3 33.8 0.00 0.00 0.00 74 1012.4
20260506193823 22 360 19.3 33.8 0.00 0.00 0.00 74 1012.5
20260506193722 22 360 20.9 33.8 0.00 0.00 0.00 74 1012.5
20260506193645 22 360 20.9 33.8 0.00 0.00 0.00 74 1012.4
20260506193524 22 360 20.9 33.8 0.00 0.00 0.00 74 1012.4
20260506193423 23 360 19.3 33.8 0.00 0.00 0.00 74 1012.4
20260506193324 23 360 17.7 35.4 0.00 0.00 0.00 74 1012.3
20260506193224 23 360 17.7 35.4 0.00 0.00 0.00 74 1012.4
20260506193125 23 360 19.3 35.4 0.00 0.00 0.00 74 1012.4
20260506193049 23 360 19.3 35.4 0.00 0.00 0.00 74 1012.4
20260506192928 23 360 19.3 35.4 0.00 0.00 0.00 74 1012.3
20260506192828 23 360 20.9 35.4 0.00 0.00 0.00 74 1012.4
20260506192750 23 360 19.3 35.4 0.00 0.00 0.00 74 1012.5
20260506192628 23 360 19.3 35.4 0.00 0.00 0.00 72 1012.4
20260506192529 24 360 19.3 35.4 0.00 0.00 0.00 72 1012.3
20260506192430 24 360 17.7 30.6 0.00 0.00 0.00 73 1012.3
20260506192333 25 360 17.7 27.4 0.00 0.00 0.00 71 1012.3
20260506192234 25 360 17.7 27.4 0.00 0.00 0.00 71 1012.3
20260506192135 25 360 16.1 27.4 0.00 0.00 0.00 71 1012.3
20260506192035 25 360 14.5 25.7 0.00 0.00 0.00 70 1012.3
20260506191917 25 360 12.9 22.5 0.00 0.00 0.00 70 1012.3
20260506191817 25 360 12.9 22.5 0.00 0.00 0.00 70 1012.3
20260506191721 25 360 12.9 22.5 0.00 0.00 0.00 70 1012.3
20260506191622 25 360 12.9 22.5 0.00 0.00 0.00 70 1012.3
20260506191542 25 360 14.5 22.5 0.00 0.00 0.00 70 1012.3
20260506191416 25 360 14.5 22.5 0.00 0.00 0.00 70 1012.4
20260506191317 26 360 14.5 22.5 0.00 0.00 0.00 70 1012.3
20260506191217 26 11 14.5 22.5 0.00 0.00 0.00 70 1012.3
20260506191117 26 360 12.9 22.5 0.00 0.00 0.00 70 1012.3
20260506191021 26 360 14.5 22.5 0.00 0.00 0.00 69 1012.3
20260506190922 26 360 12.9 22.5 0.00 0.00 0.00 69 1012.3
20260506190843 26 360 12.9 22.5 0.00 0.00 0.00 69 1012.3
20260506190803 26 360 12.9 19.3 0.00 0.00 0.00 69 1012.3
20260506190616 26 360 12.9 19.3 0.00 0.00 0.00 69 1012.4
20260506190517 26 360 14.5 19.3 0.00 0.00 0.00 69 1012.4
20260506190416 26 360 12.9 19.3 0.00 0.00 0.00 69 1012.5
20260506190320 26 360 11.3 19.3 0.00 0.00 0.00 69 1012.5
20260506190221 26 360 8.0 16.1 0.00 0.00 0.00 70 1012.6
20260506190121 26 360 6.4 16.1 0.00 0.00 0.00 70 1012.6